M I D A S
Marine Information and Data Acquisition System
Tripno 718 of the Zeeleeuw from 2004-05-17 06:24:55 to 2004-05-17 15:07:46
Back to CruiseResearch ActivitiesStationsMapUnderway DataData graphs

EquipmentUnitsComment
TimeDGPSUTC
LatitudeDGPSDM.mWGS84
LongitudeDGPSDM.mWGS84
TemperatureSBE03/SBE38deg celciusITS90
ConductivitySBE21S/mITS90
SalinitySBE21 Practical Salinity Units
ChlorophylAChelsea fluorimeterg/lCalibrated in Aceton
Missing or incorrect values are displayed as -999
Sea surface data collected by the RV Zeeleeuw from 2004-05-17 06:24:55 to 2004-05-17 15:07:46
                                                                                    Next 1000 lines
Time Latitude Longitude Temperature Conductivity Salinity ChlorophylA
2004-05-17 06:25:03 51°13.597 2°56.097 19.311069 3.98057 25.507103 0.97164
2004-05-17 06:25:08 51°13.597 2°56.097 19.313725 3.98057 25.507475 1.039059
2004-05-17 06:25:13 51°13.597 2°56.097 19.317034 3.980359 25.506347 1.005349
2004-05-17 06:25:17 51°13.597 2°56.097 19.316503 3.980359 25.507092 1.005349
2004-05-17 06:25:23 51°13.597 2°56.097 19.316503 3.980359 25.507092 1.005349
2004-05-17 06:25:28 51°13.597 2°56.096 19.315441 3.980254 25.506342 1.005349
2004-05-17 06:25:33 51°13.597 2°56.096 19.246719 3.980148 25.506336 0.97164
2004-05-17 06:25:38 51°13.597 2°56.095 19.292309 3.980148 25.506336 0.97164
2004-05-17 06:25:43 51°13.597 2°56.094 19.320753 3.980254 25.507458 0.97164
2004-05-17 06:25:48 51°13.598 2°56.092 19.24811 3.980149 25.507453 0.97164
2004-05-17 06:25:52 51°13.598 2°56.091 19.24811 3.980149 25.507453 0.97164
2004-05-17 06:25:58 51°13.599 2°56.09 19.27375 3.980043 25.506703 0.97164
2004-05-17 06:26:04 51°13.599 2°56.088 19.295947 3.980043 25.507075 0.97164
2004-05-17 06:26:08 51°13.6 2°56.087 19.304489 3.979938 25.507069 1.005349
2004-05-17 06:26:13 51°13.601 2°56.085 19.30077 3.979832 25.506691 0.97164
2004-05-17 06:26:18 51°13.601 2°56.084 19.302241 3.979832 25.507436 1.005349
2004-05-17 06:26:23 51°13.602 2°56.082 19.302241 3.979832 25.507436 1.005349
2004-05-17 06:26:28 51°13.603 2°56.08 19.305102 3.979727 25.506313 0.97164
2004-05-17 06:26:33 51°13.603 2°56.078 19.304653 3.979727 25.507058 1.005349
2004-05-17 06:26:37 51°13.604 2°56.077 19.30878 3.979621 25.50668 0.97164
2004-05-17 06:26:43 51°13.605 2°56.074 19.298972 3.979516 25.50593 1.005349
2004-05-17 06:26:48 51°13.606 2°56.071 19.301628 3.979516 25.505558 0.97164
2004-05-17 06:26:53 51°13.607 2°56.068 19.301628 3.979516 25.505558 0.97164
2004-05-17 06:26:58 51°13.608 2°56.065 19.284706 3.979411 25.505552 1.005349
2004-05-17 06:27:04 51°13.61 2°56.06 19.308698 3.979411 25.505552 1.005349
2004-05-17 06:27:09 51°13.611 2°56.056 19.269865 3.979305 25.504802 0.97164
2004-05-17 06:27:13 51°13.612 2°56.053 19.296765 3.9792 25.505168 1.005349
2004-05-17 06:27:19 51°13.614 2°56.047 19.290674 3.979305 25.505919 1.005349
2004-05-17 06:27:24 51°13.615 2°56.043 19.290674 3.979305 25.505919 1.005349
2004-05-17 06:27:29 51°13.617 2°56.038 19.29141 3.979094 25.505163 0.97164
2004-05-17 06:27:33 51°13.618 2°56.034 19.287322 3.979094 25.505907 0.97164
2004-05-17 06:27:39 51°13.62 2°56.028 19.294435 3.979094 25.50628 1.005349
2004-05-17 06:27:44 51°13.622 2°56.022 19.310088 3.978989 25.505902 1.005349
2004-05-17 06:27:49 51°13.624 2°56.017 19.315972 3.978989 25.506274 1.005349
2004-05-17 06:27:54 51°13.626 2°56.011 19.315972 3.978989 25.506274 1.005349
2004-05-17 06:27:59 51°13.627 2°56.006 19.305388 3.978884 25.505896 1.005349
2004-05-17 06:28:04 51°13.629 2°56 19.316667 3.978884 25.505896 0.97164
2004-05-17 06:28:09 51°13.631 2°55.994 19.315277 3.978778 25.505146 1.005349
2004-05-17 06:28:13 51°13.633 2°55.99 19.315359 3.978884 25.505896 1.005349
2004-05-17 06:28:19 51°13.635 2°55.983 19.308739 3.978673 25.50514 1.005349
2004-05-17 06:28:24 51°13.637 2°55.977 19.308739 3.978673 25.50514 1.005349
2004-05-17 06:28:29 51°13.639 2°55.971 19.315523 3.978778 25.506635 0.97164
2004-05-17 06:28:33 51°13.64 2°55.967 19.321651 3.978673 25.505885 1.005349
2004-05-17 06:28:39 51°13.643 2°55.96 19.316299 3.978567 25.505879 1.005349
2004-05-17 06:28:44 51°13.644 2°55.954 19.288099 3.978462 25.505129 0.97164
2004-05-17 06:28:49 51°13.646 2°55.948 19.309557 3.978462 25.505501 0.97164
2004-05-17 06:28:53 51°13.648 2°55.943 19.309557 3.978462 25.505501 0.97164
2004-05-17 06:28:59 51°13.651 2°55.935 19.294884 3.978462 25.505874 1.005349
2004-05-17 06:29:04 51°13.653 2°55.927 19.31258 3.978357 25.505496 0.97164
2004-05-17 06:29:09 51°13.655 2°55.919 19.307595 3.978251 25.505118 1.005349
2004-05-17 06:29:14 51°13.658 2°55.911 19.303345 3.978251 25.50549 1.005349
2004-05-17 06:29:19 51°13.66 2°55.902 19.288304 3.978146 25.504367 1.005349
2004-05-17 06:29:24 51°13.663 2°55.893 19.288304 3.978146 25.504367 1.005349
2004-05-17 06:29:29 51°13.665 2°55.884 19.29186 3.978146 25.505485 0.97164
2004-05-17 06:29:34 51°13.668 2°55.874 19.294271 3.978251 25.505863 0.97164
2004-05-17 06:29:39 51°13.67 2°55.863 19.291492 3.978146 25.505857 1.005349
2004-05-17 06:29:44 51°13.672 2°55.852 19.281804 3.97804 25.505852 1.005349
2004-05-17 06:29:49 51°13.674 2°55.841 19.298073 3.977935 25.504729 1.005349
2004-05-17 06:29:53 51°13.675 2°55.832 19.298073 3.977935 25.504729 1.005349
2004-05-17 06:29:59 51°13.677 2°55.819 19.304407 3.977935 25.505474 0.97164
2004-05-17 06:30:04 51°13.678 2°55.807 19.275017 3.97783 25.505096 1.005349
2004-05-17 06:30:09 51°13.679 2°55.796 19.291328 3.97783 25.505841 0.93793
2004-05-17 06:30:13 51°13.679 2°55.787 19.313316 3.977724 25.505463 0.97164
2004-05-17 06:30:19 51°13.68 2°55.775 19.310619 3.977724 25.50509 0.97164
2004-05-17 06:30:24 51°13.68 2°55.767 19.310619 3.977724 25.50509 0.97164
2004-05-17 06:30:28 51°13.681 2°55.762 19.443139 3.977619 25.505084 0.97164
2004-05-17 06:30:33 51°13.681 2°55.757 19.322019 3.977619 25.505084 1.005349
2004-05-17 06:30:37 51°13.681 2°55.755 19.456149 3.977513 25.504706 1.005349
2004-05-17 06:30:44 51°13.682 2°55.754 19.455986 3.977513 25.504706 0.97164
2004-05-17 06:30:48 51°13.682 2°55.754 19.416541 3.977513 25.505079 0.97164
2004-05-17 06:30:53 51°13.683 2°55.755 19.416541 3.977513 25.505079 0.97164
2004-05-17 06:30:58 51°13.685 2°55.757 19.359476 3.977408 25.505073 0.97164
2004-05-17 06:31:03 51°13.687 2°55.759 19.286955 3.977303 25.50544 0.97164
2004-05-17 06:31:08 51°13.689 2°55.761 19.28765 3.977408 25.507309 0.97164
2004-05-17 06:31:13 51°13.693 2°55.764 19.298522 3.977197 25.506925 0.97164
2004-05-17 06:31:18 51°13.696 2°55.766 19.271133 3.977197 25.508043 0.97164
2004-05-17 06:31:23 51°13.701 2°55.768 19.271133 3.977197 25.508043 0.97164
2004-05-17 06:31:28 51°13.704 2°55.769 19.250605 3.977197 25.508789 1.005349
2004-05-17 06:31:33 51°13.708 2°55.769 19.19193 3.976986 25.50766 1.005349
2004-05-17 06:31:37 51°13.711 2°55.77 19.102884 3.977092 25.507665 1.005349
2004-05-17 06:31:43 51°13.714 2°55.77 19.090054 3.976986 25.506542 1.005349
2004-05-17 06:31:48 51°13.715 2°55.77 19.139557 3.976881 25.505046 1.039059
2004-05-17 06:31:53 51°13.717 2°55.77 19.139557 3.976881 25.505046 1.039059
2004-05-17 06:31:58 51°13.717 2°55.77 19.155531 3.976881 25.504673 0.97164
2004-05-17 06:32:03 51°13.718 2°55.771 19.16368 3.976881 25.505046 1.005349
2004-05-17 06:32:08 51°13.717 2°55.771 19.135501 3.976776 25.505041 0.97164
2004-05-17 06:32:11 51°13.717 2°55.771 19.174408 3.976776 25.505041 1.005349
2004-05-17 06:32:18 51°13.716 2°55.772 19.289162 3.97667 25.505408 1.005349
2004-05-17 06:32:23 51°13.716 2°55.772 19.289162 3.97667 25.505408 1.005349
2004-05-17 06:32:28 51°13.716 2°55.773 19.246433 3.976565 25.50503 1.005349
2004-05-17 06:32:33 51°13.716 2°55.773 19.250809 3.976565 25.505402 1.005349
2004-05-17 06:32:37 51°13.717 2°55.773 19.253672 3.976459 25.505024 1.039059
2004-05-17 06:32:43 51°13.718 2°55.773 19.246842 3.976459 25.504652 1.005349
2004-05-17 06:32:48 51°13.719 2°55.772 19.258211 3.976354 25.503901 0.97164
2004-05-17 06:32:53 51°13.72 2°55.771 19.258211 3.976354 25.503901 0.97164
2004-05-17 06:32:57 51°13.721 2°55.771 19.243569 3.976249 25.503523 1.005349
2004-05-17 06:33:03 51°13.723 2°55.769 19.251872 3.976249 25.504268 0.97164
2004-05-17 06:33:08 51°13.725 2°55.768 19.261933 3.976143 25.50389 0.97164
2004-05-17 06:33:13 51°13.727 2°55.766 19.263896 3.976143 25.505008 1.005349
2004-05-17 06:33:19 51°13.729 2°55.763 19.254367 3.976038 25.505002 0.97164
2004-05-17 06:33:23 51°13.731 2°55.761 19.254367 3.976038 25.505002 0.97164
2004-05-17 06:33:28 51°13.733 2°55.758 19.265858 3.976038 25.505002 1.005349
2004-05-17 06:33:33 51°13.735 2°55.755 19.265531 3.975932 25.504997 1.005349
2004-05-17 06:33:37 51°13.737 2°55.752 19.266553 3.975932 25.505743 1.039059
2004-05-17 06:33:43 51°13.74 2°55.748 19.266594 3.975932 25.506115 0.97164
2004-05-17 06:33:48 51°13.742 2°55.744 19.258089 3.975722 25.504241 0.97164
2004-05-17 06:33:53 51°13.745 2°55.74 19.258089 3.975722 25.504241 0.97164
2004-05-17 06:33:58 51°13.748 2°55.736 19.254449 3.975827 25.505364 0.97164
2004-05-17 06:34:04 51°13.751 2°55.731 19.252854 3.975722 25.504241 0.97164
2004-05-17 06:34:08 51°13.754 2°55.727 19.241974 3.975616 25.504235 0.97164
2004-05-17 06:34:13 51°13.757 2°55.723 19.247946 3.975722 25.504986 0.93793
2004-05-17 06:34:18 51°13.76 2°55.718 19.242097 3.975616 25.504608 1.005349
2004-05-17 06:34:23 51°13.763 2°55.713 19.242097 3.975616 25.504608 1.005349
2004-05-17 06:34:28 51°13.767 2°55.708 19.250073 3.975511 25.50423 0.97164
2004-05-17 06:34:33 51°13.771 2°55.703 19.240624 3.975405 25.504225 1.005349
2004-05-17 06:34:38 51°13.774 2°55.698 19.236493 3.975511 25.504976 0.97164
2004-05-17 06:34:43 51°13.778 2°55.693 19.243856 3.975405 25.50497 0.97164
2004-05-17 06:34:48 51°13.782 2°55.688 19.212926 3.9753 25.504592 1.005349
2004-05-17 06:34:53 51°13.786 2°55.683 19.212926 3.9753 25.504592 1.005349
2004-05-17 06:34:57 51°13.79 2°55.679 19.217591 3.9753 25.504965 0.97164
2004-05-17 06:35:04 51°13.796 2°55.672 19.194877 3.975195 25.504587 0.97164
2004-05-17 06:35:08 51°13.8 2°55.668 19.184971 3.975195 25.504959 0.97164
2004-05-17 06:35:13 51°13.804 2°55.664 19.173958 3.975089 25.504581 0.93793
2004-05-17 06:35:18 51°13.809 2°55.66 19.175309 3.975195 25.505332 0.97164
2004-05-17 06:35:23 51°13.814 2°55.656 19.175309 3.975195 25.505332 0.97164
2004-05-17 06:35:28 51°13.818 2°55.652 19.197456 3.975089 25.505327 1.005349
2004-05-17 06:35:33 51°13.823 2°55.649 19.203636 3.975089 25.505327 0.97164
2004-05-17 06:35:37 51°13.827 2°55.646 19.216241 3.974984 25.504949 0.97164
2004-05-17 06:35:43 51°13.832 2°55.642 19.228106 3.974878 25.504943 1.005349
2004-05-17 06:35:48 51°13.837 2°55.639 19.189065 3.974878 25.504943 0.97164
2004-05-17 06:35:54 51°13.843 2°55.637 19.189065 3.974878 25.504943 0.97164
2004-05-17 06:35:57 51°13.845 2°55.635 19.19586 3.974773 25.504565 0.97164
2004-05-17 06:36:03 51°13.851 2°55.634 19.173057 3.974773 25.504565 0.97164
2004-05-17 06:36:08 51°13.855 2°55.633 19.20335 3.974773 25.504938 1.005349
2004-05-17 06:36:13 51°13.86 2°55.632 19.177725 3.974668 25.50456 1.005349
2004-05-17 06:36:17 51°13.864 2°55.632 19.184521 3.974668 25.505306 0.97164
2004-05-17 06:36:23 51°13.87 2°55.632 19.184521 3.974668 25.505306 0.97164
2004-05-17 06:36:28 51°13.875 2°55.634 19.193158 3.974562 25.5053 0.97164
2004-05-17 06:36:33 51°13.881 2°55.635 19.168471 3.974562 25.504928 1.005349
2004-05-17 06:36:37 51°13.885 2°55.636 19.254899 3.974457 25.504549 0.97164
2004-05-17 06:36:43 51°13.891 2°55.637 19.183497 3.974457 25.505668 1.005349
2004-05-17 06:36:48 51°13.896 2°55.637 19.148118 3.974351 25.50529 0.97164
2004-05-17 06:36:53 51°13.901 2°55.637 19.148118 3.974351 25.50529 0.97164
2004-05-17 06:36:58 51°13.906 2°55.637 19.129683 3.974457 25.50716 0.97164
2004-05-17 06:37:04 51°13.911 2°55.636 19.071318 3.974351 25.506782 1.005349
2004-05-17 06:37:08 51°13.914 2°55.636 19.127922 3.974351 25.507901 1.005349
2004-05-17 06:37:13 51°13.917 2°55.635 19.119645 3.974246 25.508269 0.97164
2004-05-17 06:37:17 51°13.92 2°55.635 19.114933 3.974141 25.507517 0.97164
2004-05-17 06:37:22 51°13.923 2°55.634 19.114933 3.974141 25.507517 0.97164
2004-05-17 06:37:28 51°13.927 2°55.633 19.161019 3.974141 25.507517 0.97164
2004-05-17 06:37:33 51°13.93 2°55.632 19.146233 3.974141 25.506771 1.005349
2004-05-17 06:37:37 51°13.933 2°55.632 19.162861 3.974035 25.505274 0.97164
2004-05-17 06:37:43 51°13.937 2°55.631 19.151067 3.974035 25.503782 1.005349
2004-05-17 06:37:48 51°13.94 2°55.63 19.103335 3.97393 25.501912 0.97164
2004-05-17 06:37:53 51°13.942 2°55.629 19.103335 3.97393 25.501912 0.97164
2004-05-17 06:37:57 51°13.944 2°55.628 19.117596 3.97393 25.501912 1.005349
2004-05-17 06:38:03 51°13.947 2°55.627 19.128905 3.973824 25.501161 1.005349
2004-05-17 06:38:08 51°13.948 2°55.626 19.142465 3.973824 25.501907 1.005349
2004-05-17 06:38:13 51°13.95 2°55.626 19.143366 3.973719 25.502648 0.97164
2004-05-17 06:38:19 51°13.952 2°55.625 19.148486 3.973824 25.504518 1.005349
2004-05-17 06:38:23 51°13.953 2°55.625 19.148486 3.973824 25.504518 1.005349
2004-05-17 06:38:28 51°13.953 2°55.624 19.149633 3.973614 25.504507 1.005349
2004-05-17 06:38:33 51°13.954 2°55.624 19.151435 3.973614 25.505253 0.97164
2004-05-17 06:38:37 51°13.954 2°55.624 19.158848 3.973614 25.505999 0.97164
2004-05-17 06:38:43 51°13.955 2°55.623 19.226224 3.973508 25.505248 0.97164
2004-05-17 06:38:48 51°13.955 2°55.623 19.129806 3.973614 25.506372 1.005349
2004-05-17 06:38:53 51°13.955 2°55.623 19.129806 3.973614 25.506372 1.005349
2004-05-17 06:38:57 51°13.955 2°55.623 19.131158 3.973508 25.505621 1.005349
2004-05-17 06:39:03 51°13.955 2°55.623 19.133453 3.973403 25.505243 1.005349
2004-05-17 06:39:08 51°13.955 2°55.623 19.158807 3.973403 25.505243 1.005349
2004-05-17 06:39:13 51°13.955 2°55.623 19.182351 3.973403 25.505243 1.005349
2004-05-17 06:39:17 51°13.956 2°55.623 19.185299 3.973403 25.505616 1.005349
2004-05-17 06:39:23 51°13.956 2°55.623 19.185299 3.973403 25.505616 1.005349
2004-05-17 06:39:28 51°13.956 2°55.623 19.186895 3.973297 25.505611 1.005349
2004-05-17 06:39:32 51°13.956 2°55.623 19.185667 3.973297 25.505984 1.005349
2004-05-17 06:39:37 51°13.956 2°55.623 19.180836 3.973192 25.505232 1.005349
2004-05-17 06:39:42 51°13.956 2°55.623 19.227574 3.973192 25.507098 1.005349
2004-05-17 06:39:48 51°13.957 2°55.623 19.233588 3.973087 25.505973 1.005349
2004-05-17 06:39:53 51°13.957 2°55.622 19.233588 3.973087 25.505973 1.005349
2004-05-17 06:39:57 51°13.957 2°55.622 19.253672 3.973087 25.506347 1.005349
2004-05-17 06:40:03 51°13.957 2°55.622 19.237638 3.973087 25.50672 1.005349
2004-05-17 06:40:08 51°13.958 2°55.622 19.236861 3.972981 25.505595 1.005349
2004-05-17 06:40:13 51°13.958 2°55.622 19.240256 3.972981 25.505222 1.005349
2004-05-17 06:40:18 51°13.958 2°55.623 19.204332 3.972981 25.505595 1.005349
2004-05-17 06:40:23 51°13.958 2°55.623 19.204332 3.972981 25.505595 1.005349
2004-05-17 06:40:28 51°13.957 2°55.623 19.249296 3.972876 25.505217 1.005349
2004-05-17 06:40:33 51°13.957 2°55.623 19.209079 3.972876 25.505963 1.005349
2004-05-17 06:40:39 51°13.956 2°55.624 19.252854 3.97277 25.506331 1.005349
2004-05-17 06:40:43 51°13.956 2°55.624 19.249991 3.97277 25.505958 1.005349
2004-05-17 06:40:48 51°13.956 2°55.624 19.242261 3.972665 25.505207 1.005349
2004-05-17 06:40:52 51°13.956 2°55.624 19.242261 3.972665 25.505207 1.005349
2004-05-17 06:40:57 51°13.955 2°55.624 19.220496 3.972665 25.50558 1.039059
2004-05-17 06:41:04 51°13.955 2°55.625 19.113744 3.972665 25.505207 0.97164
2004-05-17 06:41:08 51°13.954 2°55.625 19.116777 3.97256 25.504828 1.005349
2004-05-17 06:41:13 51°13.954 2°55.625 19.115547 3.972665 25.50558 0.97164
2004-05-17 06:41:19 51°13.953 2°55.625 19.117719 3.97256 25.505201 1.039059
2004-05-17 06:41:23 51°13.953 2°55.626 19.117719 3.97256 25.505201 1.039059
2004-05-17 06:41:28 51°13.953 2°55.626 19.145947 3.972349 25.504445 1.005349
2004-05-17 06:41:33 51°13.952 2°55.626 18.961627 3.974457 25.503431 1.039059
2004-05-17 06:41:37 51°13.952 2°55.626 19.007527 3.972453 25.472776 1.005349
2004-05-17 06:41:43 51°13.951 2°55.626 18.103404 3.984899 25.833473 5.960631
2004-05-17 06:41:48 51°13.95 2°55.626 15.684767 3.595578 23.022825 5.353862
2004-05-17 06:41:53 51°13.95 2°55.626 15.684767 3.595578 23.022825 5.353862
2004-05-17 06:41:57 51°13.95 2°55.626 15.27634 2.389257 14.705065 7.578683
2004-05-17 06:42:04 51°13.95 2°55.626 14.84094 3.584644 24.005011 7.646101
2004-05-17 06:42:08 51°13.95 2°55.626 14.723319 3.646726 25.475205 7.949486
2004-05-17 06:42:13 51°13.95 2°55.626 14.549854 3.772575 27.611433 9.264153
2004-05-17 06:42:17 51°13.95 2°55.626 14.460673 3.70293 27.93275 15.770067
2004-05-17 06:42:24 51°13.95 2°55.626 14.460673 3.70293 27.93275 15.770067
2004-05-17 06:42:28 51°13.951 2°55.626 14.461682 3.669851 28.271434 18.905042
2004-05-17 06:42:33 51°13.951 2°55.625 14.41277 3.646885 28.461631 20.893896
2004-05-17 06:42:38 51°13.952 2°55.625 14.38301 3.613488 28.521561 21.568084
2004-05-17 06:42:43 51°13.952 2°55.625 14.368301 3.608433 28.626796 22.275982
2004-05-17 06:42:48 51°13.953 2°55.625 14.336677 3.5842 28.535037 22.208563
2004-05-17 06:42:53 51°13.953 2°55.625 14.336677 3.5842 28.535037 22.208563
2004-05-17 06:42:57 51°13.954 2°55.624 14.324243 3.577669 28.565425 22.747913
2004-05-17 06:43:03 51°13.954 2°55.624 14.312466 3.575141 28.608317 22.511947
2004-05-17 06:43:08 51°13.955 2°55.624 14.3035 3.559548 28.516924 22.579366
2004-05-17 06:43:12 51°13.955 2°55.623 14.300467 3.550804 28.481829 22.511947
2004-05-17 06:43:18 51°13.956 2°55.623 14.308466 3.546801 28.471697 22.444529
2004-05-17 06:43:23 51°13.956 2°55.623 14.308466 3.546801 28.471697 22.444529
2004-05-17 06:43:28 51°13.957 2°55.622 14.276814 3.530997 28.358652 22.882751
2004-05-17 06:43:33 51°13.957 2°55.622 14.290092 3.53479 28.408503 22.208563
2004-05-17 06:43:37 51°13.958 2°55.622 14.263357 3.525203 28.337443 22.275982
2004-05-17 06:43:43 51°13.959 2°55.621 14.257156 3.534685 28.428645 22.714204
2004-05-17 06:43:48 51°13.959 2°55.621 14.245543 3.536266 28.451633 22.275982
2004-05-17 06:43:53 51°13.96 2°55.621 14.245543 3.536266 28.451633 22.275982
2004-05-17 06:43:57 51°13.961 2°55.62 14.245411 3.500235 28.144658 22.242272
2004-05-17 06:44:03 51°13.961 2°55.62 14.235292 3.535107 28.458529 22.410819
2004-05-17 06:44:08 51°13.962 2°55.619 14.2312 3.526363 28.390461 22.37711
2004-05-17 06:44:13 51°13.962 2°55.619 14.218878 3.538479 28.516512 22.37711
2004-05-17 06:44:17 51°13.963 2°55.618 14.214785 3.540797 28.543936 22.309691
2004-05-17 06:44:23 51°13.964 2°55.618 14.214785 3.540797 28.543936 22.309691
2004-05-17 06:44:28 51°13.964 2°55.617 14.201228 3.511297 28.290302 22.983879
2004-05-17 06:44:33 51°13.965 2°55.617 14.199203 3.528787 28.453284 22.983879
2004-05-17 06:44:39 51°13.966 2°55.616 14.198895 3.534265 28.510659 22.815332
2004-05-17 06:44:44 51°13.967 2°55.616 14.196914 3.52963 28.475327 22.781623
2004-05-17 06:44:48 51°13.967 2°55.616 14.199907 3.500236 28.223013 23.085007
2004-05-17 06:44:53 51°13.968 2°55.615 14.199907 3.500236 28.223013 23.085007
2004-05-17 06:44:57 51°13.968 2°55.615 14.187536 3.536794 28.558474 22.714204
2004-05-17 06:45:03 51°13.969 2°55.614 14.186787 3.528682 28.484714 23.051298
2004-05-17 06:45:08 51°13.97 2°55.613 14.183045 3.526575 28.473113 23.186136
2004-05-17 06:45:13 51°13.971 2°55.613 14.1819 3.537005 28.572134 22.882751
2004-05-17 06:45:18 51°13.971 2°55.612 14.190618 3.539007 28.592876 22.747913
2004-05-17 06:45:23 51°13.972 2°55.611 14.190618 3.539007 28.592876 22.747913
2004-05-17 06:45:28 51°13.972 2°55.611 14.181283 3.545856 28.658756 22.983879
2004-05-17 06:45:33 51°13.972 2°55.611 14.196826 3.519832 28.427252 23.118717
2004-05-17 06:45:39 51°13.972 2°55.611 14.183265 3.556813 28.762665 22.983879
2004-05-17 06:45:43 51°13.971 2°55.612 14.184102 3.555233 28.753005 23.320973
2004-05-17 06:45:48 51°13.971 2°55.612 14.167808 3.561133 28.807647 23.051298
2004-05-17 06:45:53 51°13.971 2°55.612 14.167808 3.561133 28.807647 23.051298
2004-05-17 06:45:58 51°13.971 2°55.612 14.174414 3.53985 28.617285 22.849042
2004-05-17 06:46:03 51°13.97 2°55.612 14.166706 3.561344 28.80784 22.91646
2004-05-17 06:46:08 51°13.97 2°55.612 14.16609 3.55871 28.787596 23.051298
2004-05-17 06:46:13 51°13.97 2°55.612 14.16261 3.562187 28.8222 23.118717
2004-05-17 06:46:18 51°13.97 2°55.612 14.168821 3.55734 28.784353 23.186136
2004-05-17 06:46:24 51°13.97 2°55.612 14.168821 3.55734 28.784353 23.186136
2004-05-17 06:46:28 51°13.969 2°55.612 14.163711 3.561239 28.82275 23.118717
2004-05-17 06:46:33 51°13.969 2°55.611 14.157325 3.555338 28.774301 23.455811
2004-05-17 06:46:38 51°13.969 2°55.611 14.156355 3.559342 28.813651 23.658067
2004-05-17 06:46:43 51°13.969 2°55.611 14.152963 3.575568 28.961707 23.52323
2004-05-17 06:46:48 51°13.969 2°55.611 14.149968 3.584208 29.039948 23.894033
2004-05-17 06:46:53 51°13.97 2°55.611 14.149968 3.584208 29.039948 23.894033
2004-05-17 06:46:57 51°13.97 2°55.611 14.152611 3.549438 28.728111 23.826614
2004-05-17 06:47:03 51°13.97 2°55.611 14.145871 3.579888 29.007955 24.06258
2004-05-17 06:47:08 51°13.97 2°55.61 14.144857 3.585473 29.059891 24.028871
2004-05-17 06:47:13 51°13.97 2°55.61 14.142875 3.591163 29.113366 24.096289
2004-05-17 06:47:17 51°13.97 2°55.61 14.14076 3.572513 28.94677 23.691777
2004-05-17 06:47:23 51°13.971 2°55.61 14.14076 3.572513 28.94677 23.691777
2004-05-17 06:47:28 51°13.971 2°55.609 14.146664 3.585262 29.063714 23.860324
2004-05-17 06:47:33 51°13.971 2°55.609 14.14098 3.578308 29.003445 24.028871
2004-05-17 06:47:38 51°13.971 2°55.608 14.13393 3.587475 29.086483 23.759195
2004-05-17 06:47:43 51°13.971 2°55.608 14.133489 3.575885 28.98336 24.163708
2004-05-17 06:47:48 51°13.972 2°55.608 14.138336 3.584103 29.062439 23.826614
2004-05-17 06:47:53 51°13.972 2°55.608 14.138336 3.584103 29.062439 23.826614
2004-05-17 06:47:57 51°13.972 2°55.607 14.136574 3.586948 29.089186 23.725486
2004-05-17 06:48:03 51°13.973 2°55.607 14.137147 3.572618 28.960825 23.658067
2004-05-17 06:48:08 51°13.973 2°55.606 14.130272 3.585052 29.075552 23.792905
2004-05-17 06:48:13 51°13.974 2°55.606 14.1297 3.585473 29.082781 23.624358
2004-05-17 06:48:18 51°13.974 2°55.605 14.134018 3.572408 28.964062 23.455811
2004-05-17 06:48:21 51°13.975 2°55.604 14.134018 3.572408 28.964062 23.455811
2004-05-17 06:48:28 51°13.977 2°55.602 14.125513 3.577465 29.012423 23.422101
2004-05-17 06:48:33 51°13.979 2°55.6 14.127496 3.584209 29.074263 23.860324
2004-05-17 06:48:39 51°13.982 2°55.597 14.130801 3.579046 29.028933 23.48952
2004-05-17 06:48:43 51°13.984 2°55.595 14.131418 3.585579 29.090032 23.556939
2004-05-17 06:48:48 51°13.987 2°55.591 14.130713 3.57873 29.027804 23.658067
2004-05-17 06:48:53 51°13.99 2°55.587 14.130713 3.57873 29.027804 23.658067
2004-05-17 06:48:58 51°13.993 2°55.583 14.124147 3.58031 29.046035 23.691777
2004-05-17 06:49:03 51°13.997 2°55.578 14.127893 3.581259 29.054 23.826614
2004-05-17 06:49:08 51°14.002 2°55.572 14.123838 3.580205 29.045659 23.051298
2004-05-17 06:49:13 51°14.007 2°55.566 14.121635 3.575253 29.002793 24.096289
2004-05-17 06:49:17 51°14.011 2°55.561 14.118549 3.574831 28.998428 23.691777
2004-05-17 06:49:23 51°14.018 2°55.552 14.118549 3.574831 28.998428 23.691777
2004-05-17 06:49:28 51°14.024 2°55.545 14.117668 3.573988 28.991983 23.556939
2004-05-17 06:49:33 51°14.03 2°55.537 14.117668 3.571144 28.96809 23.995161
2004-05-17 06:49:37 51°14.035 2°55.53 14.125513 3.570722 28.966008 23.691777
2004-05-17 06:49:43 51°14.043 2°55.52 14.121414 3.55555 28.830619 23.422101
2004-05-17 06:49:48 51°14.051 2°55.511 14.130096 3.569985 28.960511 23.927742
2004-05-17 06:49:53 51°14.059 2°55.502 14.130096 3.569985 28.960511 23.927742
2004-05-17 06:49:58 51°14.068 2°55.492 14.141068 3.569985 28.962794 23.759195
2004-05-17 06:50:03 51°14.077 2°55.481 14.152831 3.566297 28.93017 23.792905
2004-05-17 06:50:08 51°14.087 2°55.471 14.157236 3.562188 28.891479 23.219845
2004-05-17 06:50:13 51°14.097 2°55.459 14.159967 3.546278 28.746662 24.06258
2004-05-17 06:50:17 51°14.105 2°55.45 14.168116 3.534899 28.643803 23.826614
2004-05-17 06:50:24 51°14.119 2°55.434 14.168116 3.534899 28.643803 23.826614
2004-05-17 06:50:28 51°14.128 2°55.425 14.175647 3.531423 28.607485 23.287264
2004-05-17 06:50:33 51°14.139 2°55.413 14.179698 3.505505 28.370283 23.388392
2004-05-17 06:50:37 51°14.148 2°55.405 14.181724 3.498973 28.306661 22.983879
2004-05-17 06:50:43 51°14.162 2°55.391 14.186259 3.486647 28.192804 23.52323
2004-05-17 06:50:48 51°14.173 2°55.379 14.175999 3.478113 28.11135 23.725486
2004-05-17 06:50:53 51°14.184 2°55.366 14.175999 3.478113 28.11135 23.725486
2004-05-17 06:50:59 51°14.197 2°55.351 14.179918 3.475901 28.087662 23.253554
2004-05-17 06:51:04 51°14.208 2°55.337 14.16653 3.469685 28.028691 23.860324
2004-05-17 06:51:08 51°14.216 2°55.326 14.159351 3.464102 27.975956 24.163708
2004-05-17 06:51:13 51°14.226 2°55.311 14.158998 3.463997 27.972263 24.332255
2004-05-17 06:51:17 51°14.235 2°55.299 14.15358 3.478008 28.099347 23.961452
2004-05-17 06:51:23 51°14.247 2°55.281 14.15358 3.478008 28.099347 23.961452
2004-05-17 06:51:28 51°14.257 2°55.266 14.152435 3.465577 27.988056 24.231127
2004-05-17 06:51:33 51°14.267 2°55.251 14.149703 3.482749 28.146787 24.433383
2004-05-17 06:51:37 51°14.275 2°55.239 14.150585 3.486541 28.184648 25.006443
2004-05-17 06:51:43 51°14.288 2°55.221 14.147413 3.486436 28.187586 24.163708
2004-05-17 06:51:48 51°14.298 2°55.206 14.147853 3.45894 27.944603 23.894033
2004-05-17 06:51:53 51°14.308 2°55.19 14.147853 3.45894 27.944603 23.894033
2004-05-17 06:51:58 51°14.318 2°55.175 14.144637 3.48317 28.163862 23.860324
2004-05-17 06:52:03 51°14.327 2°55.158 14.133181 3.474321 28.08622 24.163708
2004-05-17 06:52:08 51°14.336 2°55.141 14.124103 3.464313 27.99822 23.556939
2004-05-17 06:52:13 51°14.346 2°55.124 14.123133 3.462733 27.984618 23.186136
2004-05-17 06:52:18 51°14.354 2°55.107 14.120489 3.449565 27.869456 23.152426
2004-05-17 06:52:23 51°14.363 2°55.09 14.120489 3.449565 27.869456 23.152426
2004-05-17 06:52:28 51°14.372 2°55.072 14.12137 3.467684 28.033936 23.051298
2004-05-17 06:52:33 51°14.38 2°55.054 14.125954 3.482328 28.168508 23.017589
2004-05-17 06:52:37 51°14.387 2°55.039 14.126394 3.488227 28.225861 22.95017
2004-05-17 06:52:43 51°14.397 2°55.017 14.12591 3.506137 28.390492 23.118717
2004-05-17 06:52:48 51°14.406 2°54.998 14.130801 3.500975 28.348058 22.849042
2004-05-17 06:52:53 51°14.413 2°54.979 14.130801 3.500975 28.348058 22.849042
2004-05-17 06:52:58 51°14.421 2°54.96 14.125469 3.503714 28.37321 23.051298
2004-05-17 06:53:03 51°14.429 2°54.941 14.122736 3.502345 28.360354 22.95017
2004-05-17 06:53:08 51°14.439 2°54.924 14.134591 3.494443 28.289984 22.781623
2004-05-17 06:53:13 51°14.449 2°54.908 14.142875 3.465788 28.032955 22.613076
2004-05-17 06:53:18 51°14.459 2°54.893 14.152391 3.460205 27.982359 22.781623
2004-05-17 06:53:23 51°14.47 2°54.878 14.152391 3.460205 27.982359 22.781623
2004-05-17 06:53:28 51°14.482 2°54.865 14.165033 3.472109 28.087964 22.815332
2004-05-17 06:53:33 51°14.493 2°54.852 14.186127 3.481907 28.176939 22.545657
2004-05-17 06:53:38 51°14.505 2°54.841 14.182825 3.483697 28.189116 22.882751
2004-05-17 06:53:43 51°14.517 2°54.829 14.214037 3.496866 28.302809 22.511947
2004-05-17 06:53:47 51°14.527 2°54.82 14.181812 3.516883 28.476334 23.354683
2004-05-17 06:53:53 51°14.541 2°54.806 14.181812 3.516883 28.476334 23.354683
2004-05-17 06:53:57 51°14.551 2°54.796 14.172916 3.546805 28.738376 23.860324
2004-05-17 06:54:03 51°14.565 2°54.781 14.1601 3.555655 28.808295 24.028871
2004-05-17 06:54:08 51°14.577 2°54.769 14.144417 3.596747 29.171655 24.06258
2004-05-17 06:54:13 51°14.589 2°54.758 14.13111 3.63036 29.468078 24.06258
2004-05-17 06:54:17 51°14.599 2°54.75 14.113128 3.639528 29.550138 23.590648
2004-05-17 06:54:23 51°14.615 2°54.74 14.113128 3.639528 29.550138 23.590648
2004-05-17 06:54:27 51°14.625 2°54.733 14.108455 3.66661 29.800904 23.388392
2004-05-17 06:54:33 51°14.641 2°54.725 14.089277 3.690636 30.025622 22.91646
2004-05-17 06:54:37 51°14.651 2°54.719 14.064491 3.69306 30.054638 22.95017
2004-05-17 06:54:43 51°14.667 2°54.711 14.037225 3.710976 30.229215 22.006306
2004-05-17 06:54:47 51°14.677 2°54.706 14.017674 3.728259 30.394735 21.938888
2004-05-17 06:54:53 51°14.693 2°54.698 14.017674 3.728259 30.394735 21.938888
2004-05-17 06:54:57 51°14.704 2°54.693 14.000191 3.733634 30.452461 21.466956
2004-05-17 06:55:03 51°14.72 2°54.685 13.970646 3.738904 30.508674 21.399537
2004-05-17 06:55:07 51°14.73 2°54.679 13.953815 3.752078 30.642132 21.365828
2004-05-17 06:55:13 51°14.746 2°54.671 13.93088 3.756294 30.699821 20.725349
2004-05-17 06:55:17 51°14.756 2°54.665 13.915453 3.76072 30.757077 20.725349
2004-05-17 06:55:23 51°14.772 2°54.656 13.915453 3.76072 30.757077 20.725349
2004-05-17 06:55:28 51°14.784 2°54.648 13.89445 3.75661 30.736717 20.253418
2004-05-17 06:55:33 51°14.797 2°54.639 13.893566 3.753449 30.722543 20.287127
2004-05-17 06:55:38 51°14.81 2°54.63 13.876493 3.762091 30.82136 19.983742
2004-05-17 06:55:43 51°14.822 2°54.62 13.864151 3.758719 30.80895 19.983742
2004-05-17 06:55:47 51°14.832 2°54.612 13.854417 3.770629 30.934717 19.275845
2004-05-17 06:55:53 51°14.847 2°54.599 13.854417 3.770629 30.934717 19.275845
2004-05-17 06:55:58 51°14.859 2°54.589 13.84446 3.763673 30.882895 19.478101
2004-05-17 06:56:03 51°14.872 2°54.578 13.841495 3.764938 30.904254 19.242136
2004-05-17 06:56:07 51°14.882 2°54.57 13.818566 3.748602 30.766162 19.141007
2004-05-17 06:56:13 51°14.897 2°54.558 13.805416 3.753977 30.827473 18.97246
2004-05-17 06:56:18 51°14.909 2°54.548 13.796559 3.766097 30.945569 18.500529
2004-05-17 06:56:23 51°14.921 2°54.537 13.796559 3.766097 30.945569 18.500529
2004-05-17 06:56:28 51°14.934 2°54.527 13.778266 3.769154 30.983977 18.264563
2004-05-17 06:56:33 51°14.946 2°54.518 13.769583 3.758299 30.891501 18.365691
2004-05-17 06:56:37 51°14.956 2°54.51 13.761607 3.76536 30.965919 18.096016
2004-05-17 06:56:43 51°14.971 2°54.5 13.761164 3.764939 30.971926 17.893759
2004-05-17 06:56:48 51°14.984 2°54.493 13.745875 3.759037 30.92655 18.264563
2004-05-17 06:56:53 51°14.997 2°54.486 13.745875 3.759037 30.92655 18.264563
2004-05-17 06:56:57 51°15.007 2°54.482 13.737897 3.762726 30.973878 17.590375
2004-05-17 06:57:03 51°15.023 2°54.473 13.731337 3.768312 31.033684 17.489247
2004-05-17 06:57:08 51°15.035 2°54.466 13.720785 3.756613 30.933328 17.152153
2004-05-17 06:57:13 51°15.048 2°54.457 13.711075 3.761672 30.985222 16.983606
2004-05-17 06:57:18 51°15.06 2°54.448 13.702161 3.760724 30.98642 17.28699
2004-05-17 06:57:23 51°15.072 2°54.438 13.702161 3.760724 30.98642 17.28699
2004-05-17 06:57:28 51°15.084 2°54.428 13.697549 3.74618 30.859947 17.118443
2004-05-17 06:57:33 51°15.096 2°54.418 13.698968 3.763886 31.027777 16.74764
2004-05-17 06:57:37 51°15.106 2°54.41 13.694843 3.764202 31.03935 16.74764
2004-05-17 06:57:43 51°15.121 2°54.398 13.691561 3.758616 30.99555 16.612802
2004-05-17 06:57:47 51°15.131 2°54.391 13.700476 3.762411 31.035931 16.545383
2004-05-17 06:57:52 51°15.143 2°54.383 13.700476 3.762411 31.035931 16.545383
2004-05-17 06:57:57 51°15.156 2°54.377 13.696839 3.756403 30.988247 16.882477
2004-05-17 06:58:03 51°15.171 2°54.37 13.710144 3.747972 30.912756 16.309418
2004-05-17 06:58:08 51°15.184 2°54.365 13.697771 3.738276 30.827535 15.770067
2004-05-17 06:58:13 51°15.197 2°54.36 13.697283 3.759671 31.025045 16.275708
2004-05-17 06:58:17 51°15.207 2°54.356 13.681624 3.765151 31.074731 16.410546
2004-05-17 06:58:23 51°15.223 2°54.349 13.681624 3.765151 31.074731 16.410546
2004-05-17 06:58:28 51°15.235 2°54.342 13.684331 3.756298 30.992234 15.668939
2004-05-17 06:58:33 51°15.248 2°54.335 13.678253 3.75672 30.994245 15.770067
2004-05-17 06:58:38 51°15.261 2°54.327 13.675546 3.759881 31.023879 15.938614
2004-05-17 06:58:43 51°15.273 2°54.319 13.673106 3.760514 31.033404 15.871195
2004-05-17 06:58:48 51°15.286 2°54.311 13.665918 3.761146 31.043552 16.073452
2004-05-17 06:58:53 51°15.298 2°54.303 13.665918 3.761146 31.043552 16.073452
2004-05-17 06:58:58 51°15.311 2°54.294 13.662457 3.759249 31.030478 16.17458
2004-05-17 06:59:03 51°15.323 2°54.285 13.661259 3.757563 31.018718 16.579093
2004-05-17 06:59:08 51°15.336 2°54.276 13.655623 3.760619 31.049886 16.17458
2004-05-17 06:59:13 51°15.348 2°54.268 13.654469 3.763149 31.076224 16.275708
2004-05-17 06:59:18 51°15.361 2°54.26 13.648832 3.757036 31.023806 15.63523
2004-05-17 06:59:23 51°15.373 2°54.252 13.648832 3.757036 31.023806 15.63523
2004-05-17 06:59:28 51°15.386 2°54.245 13.644083 3.761463 31.068814 16.17458
2004-05-17 06:59:33 51°15.399 2°54.236 13.637824 3.760198 31.058438 16.073452
2004-05-17 06:59:37 51°15.409 2°54.23 13.628546 3.751661 30.983123 15.736358
2004-05-17 06:59:43 51°15.424 2°54.219 13.628768 3.763044 31.090803 16.275708
2004-05-17 06:59:47 51°15.433 2°54.211 13.616646 3.763149 31.094883 15.938614
2004-05-17 06:59:53 51°15.448 2°54.199 13.616646 3.763149 31.094883 15.938614
2004-05-17 06:59:58 51°15.46 2°54.188 13.612294 3.753242 31.006329 15.770067
2004-05-17 07:00:03 51°15.472 2°54.177 13.606565 3.747024 30.954161 15.331845
2004-05-17 07:00:08 51°15.484 2°54.166 13.598659 3.756088 31.041796 15.331845
2004-05-17 07:00:13 51°15.496 2°54.155 13.600791 3.753769 31.024212 15.298136
2004-05-17 07:00:18 51°15.508 2°54.145 13.592351 3.759461 31.082134 15.331845
2004-05-17 07:00:23 51°15.521 2°54.134 13.592351 3.759461 31.082134 15.331845
2004-05-17 07:00:27 51°15.53 2°54.126 13.585199 3.752505 31.024391 15.197007
2004-05-17 07:00:33 51°15.545 2°54.114 13.583022 3.748184 30.989629 15.163298
2004-05-17 07:00:38 51°15.557 2°54.103 13.581512 3.75124 31.024572 15.298136
2004-05-17 07:00:43 51°15.569 2°54.093 13.576313 3.741334 30.935946 15.399264
2004-05-17 07:00:48 51°15.582 2°54.083 13.570092 3.760304 31.114819 14.961042
2004-05-17 07:00:53 51°15.594 2°54.075 13.570092 3.760304 31.114819 14.961042
2004-05-17 07:00:58 51°15.607 2°54.068 13.574847 3.761147 31.127572 15.163298
2004-05-17 07:01:03 51°15.62 2°54.062 13.570359 3.758618 31.106159 14.590238
2004-05-17 07:01:08 51°15.633 2°54.056 13.559916 3.72953 30.840418 15.129589
2004-05-17 07:01:13 51°15.646 2°54.051 13.55796 3.738594 30.92687 14.961042
2004-05-17 07:01:18 51°15.659 2°54.046 13.551915 3.758724 31.11649 14.792494
2004-05-17 07:01:23 51°15.672 2°54.042 13.551915 3.758724 31.11649 14.792494
2004-05-17 07:01:27 51°15.682 2°54.039 13.555916 3.750819 31.04434 14.927332
2004-05-17 07:01:33 51°15.698 2°54.035 13.55396 3.756616 31.099577 14.725076
2004-05-17 07:01:37 51°15.708 2°54.032 13.55396 3.757037 31.107828 15.06217
2004-05-17 07:01:43 51°15.724 2°54.029 13.551604 3.753243 31.077254 14.893623
2004-05-17 07:01:48 51°15.737 2°54.027 13.548404 3.754403 31.091675 14.4554
2004-05-17 07:01:53 51°15.75 2°54.025 13.548404 3.754403 31.091675 14.4554
2004-05-17 07:01:57 51°15.761 2°54.023 13.543781 3.754192 31.091605 14.725076
2004-05-17 07:02:03 51°15.777 2°54.022 13.546715 3.735433 30.918872 14.725076
2004-05-17 07:02:07 51°15.787 2°54.021 13.540402 3.7563 31.111647 14.623947
2004-05-17 07:02:13 51°15.803 2°54.02 13.531821 3.755141 31.10284 14.590238
2004-05-17 07:02:17 51°15.813 2°54.02 13.533822 3.751873 31.073991 14.792494
2004-05-17 07:02:23 51°15.829 2°54.02 13.533822 3.751873 31.073991 14.792494
2004-05-17 07:02:27 51°15.839 2°54.02 13.535334 3.759567 31.147375 14.961042
2004-05-17 07:02:33 51°15.855 2°54.021 13.53031 3.757143 31.125038 15.095879
2004-05-17 07:02:38 51°15.868 2°54.022 13.528842 3.754824 31.107421 15.06217
2004-05-17 07:02:41 51°15.876 2°54.022 13.526575 3.756932 31.131221 15.163298
2004-05-17 07:02:47 51°15.891 2°54.024 13.52235 3.7348 30.929193 14.758785
2004-05-17 07:02:51 51°15.901 2°54.026 13.52235 3.7348 30.929193 14.758785
2004-05-17 07:02:55 51°15.911 2°54.029 13.52613 3.754403 31.111659 14.927332
2004-05-17 07:03:03 51°15.931 2°54.035 13.520171 3.756722 31.134907 15.095879
2004-05-17 07:03:07 51°15.941 2°54.039 13.517459 3.765048 31.2123 15.298136
2004-05-17 07:03:13 51°15.955 2°54.045 13.526086 3.765153 31.216407 14.758785
2004-05-17 07:03:17 51°15.963 2°54.05 13.521995 3.760621 31.175867 15.129589
2004-05-17 07:03:23 51°15.975 2°54.057 13.521995 3.760621 31.175867 15.129589
2004-05-17 07:03:27 51°15.982 2°54.062 13.526575 3.766945 31.234815 15.668939
2004-05-17 07:03:33 51°15.992 2°54.069 13.518037 3.758619 31.160533 15.331845
2004-05-17 07:03:38 51°16 2°54.075 13.521817 3.75883 31.163729 15.331845
2004-05-17 07:03:41 51°16.004 2°54.079 13.523862 3.738489 30.974361 15.264426
2004-05-17 07:03:48 51°16.015 2°54.087 13.522439 3.759357 31.167336 15.567811
2004-05-17 07:03:53 51°16.022 2°54.093 13.522439 3.759357 31.167336 15.567811
2004-05-17 07:03:57 51°16.027 2°54.096 13.51986 3.758935 31.163449 15.432973
2004-05-17 07:04:03 51°16.035 2°54.102 13.52155 3.754087 31.119997 15.702648
2004-05-17 07:04:07 51°16.041 2°54.105 13.523106 3.737014 30.962634 15.63523
2004-05-17 07:04:13 51°16.049 2°54.109 13.521772 3.756406 31.141376 16.140871
2004-05-17 07:04:16 51°16.053 2°54.111 13.522439 3.766945 31.239209 16.039742
2004-05-17 07:04:23 51°16.062 2°54.114 13.522439 3.766945 31.239209 16.039742
2004-05-17 07:04:27 51°16.067 2°54.116 13.522795 3.759567 31.171786 15.534101
2004-05-17 07:04:32 51°16.073 2°54.119 13.525285 3.766418 31.236231 15.567811
2004-05-17 07:04:36 51°16.078 2°54.121 13.522573 3.76294 31.202892 15.770067
2004-05-17 07:04:43 51°16.087 2°54.125 13.526441 3.765575 31.227825 16.140871
2004-05-17 07:04:48 51°16.092 2°54.128 13.527108 3.76294 31.202892 16.140871
2004-05-17 07:04:53 51°16.098 2°54.131 13.527108 3.76294 31.202892 16.140871
2004-05-17 07:04:57 51°16.102 2°54.134 13.530399 3.764521 31.21873 16.241999
2004-05-17 07:05:03 51°16.108 2°54.139 13.529732 3.760094 31.177272 16.444255
2004-05-17 07:05:07 51°16.112 2°54.142 13.531688 3.755246 31.132563 16.140871
2004-05-17 07:05:12 51°16.117 2°54.146 13.528175 3.75883 31.163729 16.579093
2004-05-17 07:05:17 51°16.122 2°54.15 13.532577 3.763256 31.202046 16.376836
2004-05-17 07:05:23 51°16.127 2°54.156 13.532577 3.763256 31.202046 16.376836
2004-05-17 07:05:28 51°16.132 2°54.161 13.529643 3.758935 31.16157 16.275708
2004-05-17 07:05:33 51°16.137 2°54.167 13.532133 3.76294 31.197876 16.882477
2004-05-17 07:05:38 51°16.142 2°54.173 13.531199 3.761464 31.183016 16.74764
2004-05-17 07:05:43 51°16.147 2°54.18 13.53031 3.759567 31.165523 16.815059
2004-05-17 07:05:47 51°16.152 2°54.186 13.532844 3.753033 31.105279 17.118443
2004-05-17 07:05:52 51°16.157 2°54.195 13.532844 3.753033 31.105279 17.118443
2004-05-17 07:05:57 51°16.163 2°54.204 13.530532 3.750187 31.079674 17.185862
2004-05-17 07:06:03 51°16.17 2°54.215 13.531688 3.761886 31.186903 17.152153
2004-05-17 07:06:07 51°16.175 2°54.222 13.5328 3.763572 31.201828 17.185862
2004-05-17 07:06:12 51°16.181 2°54.231 13.528754 3.764205 31.208286 17.691503
2004-05-17 07:06:17 51°16.188 2°54.238 13.53031 3.763888 31.204743 17.624084
2004-05-17 07:06:23 51°16.197 2°54.247 13.53031 3.763888 31.204743 17.624084
2004-05-17 07:06:27 51°16.204 2°54.252 13.529598 3.763151 31.199193 17.522956
2004-05-17 07:06:33 51°16.214 2°54.259 13.530754 3.759567 31.166149 17.826341
2004-05-17 07:06:37 51°16.22 2°54.263 13.528754 3.751558 31.092303 18.163435
2004-05-17 07:06:43 51°16.229 2°54.269 13.533378 3.763151 31.19982 17.624084
2004-05-17 07:06:47 51°16.235 2°54.273 13.533289 3.761359 31.183924 17.86005
2004-05-17 07:06:52 51°16.241 2°54.277 13.533289 3.761359 31.183924 17.86005
2004-05-17 07:06:57 51°16.248 2°54.281 13.534178 3.760094 31.172887 17.758922
2004-05-17 07:07:03 51°16.255 2°54.286 13.535734 3.761359 31.183297 18.3994
2004-05-17 07:07:07 51°16.26 2°54.29 13.537379 3.757354 31.146993 18.43311
2004-05-17 07:07:12 51°16.265 2°54.293 13.5344 3.757986 31.152824 18.871332
2004-05-17 07:07:17 51°16.269 2°54.296 13.536312 3.762097 31.188847 18.770204
2004-05-17 07:07:23 51°16.274 2°54.3 13.536312 3.762097 31.188847 18.770204
2004-05-17 07:07:27 51°16.276 2°54.301 13.535334 3.759673 31.164616 18.803913
2004-05-17 07:07:32 51°16.278 2°54.303 13.536134 3.762308 31.188911 18.331982
2004-05-17 07:07:37 51°16.279 2°54.304 13.537557 3.766207 31.223618 18.567947
2004-05-17 07:07:43 51°16.28 2°54.304 13.533733 3.767366 31.23431 18.938751
2004-05-17 07:07:47 51°16.281 2°54.303 13.539646 3.765258 31.214871 19.646648
2004-05-17 07:07:53 51°16.281 2°54.303 13.539646 3.765258 31.214871 19.646648
2004-05-17 07:07:55 51°16.281 2°54.303 13.538402 3.764732 31.210011 18.871332
2004-05-17 07:08:03 51°16.282 2°54.302 13.536534 3.765364 31.215843 18.837623
2004-05-17 07:08:08 51°16.283 2°54.301 13.536445 3.766207 31.224246 19.00617
2004-05-17 07:08:12 51°16.283 2°54.3 13.537068 3.767261 31.233966 18.938751
2004-05-17 07:08:15 51°16.283 2°54.299 13.535467 3.764205 31.205778 19.612939
2004-05-17 07:08:23 51°16.282 2°54.297 13.535467 3.764205 31.205778 19.612939
2004-05-17 07:08:27 51°16.282 2°54.296 13.53609 3.764205 31.205778 19.54552
2004-05-17 07:08:32 51°16.282 2°54.295 13.5352 3.764942 31.211955 19.242136
2004-05-17 07:08:36 51°16.282 2°54.293 13.536312 3.764521 31.209321 18.97246
2004-05-17 07:08:43 51°16.282 2°54.292 13.534623 3.765785 31.220985 19.444392
2004-05-17 07:08:48 51°16.282 2°54.29 13.539513 3.763045 31.195088 19.916324
2004-05-17 07:08:53 51°16.282 2°54.289 13.539513 3.763045 31.195088 19.916324
2004-05-17 07:08:58 51°16.282 2°54.287 13.539913 3.764942 31.212582 19.478101
2004-05-17 07:09:03 51°16.282 2°54.286 13.542225 3.76431 31.208631 19.714067
2004-05-17 07:09:07 51°16.282 2°54.285 13.539958 3.764837 31.212864 19.444392
2004-05-17 07:09:12 51°16.281 2°54.283 13.53769 3.761991 31.185996 19.478101
2004-05-17 07:09:17 51°16.281 2°54.282 13.537335 3.769263 31.252436 19.478101
2004-05-17 07:09:23 51°16.281 2°54.28 13.537335 3.769263 31.252436 19.478101
2004-05-17 07:09:27 51°16.281 2°54.279 13.537112 3.766207 31.223618 19.343264
2004-05-17 07:09:33 51°16.281 2°54.277 13.538979 3.764205 31.203898 19.54552
2004-05-17 07:09:35 51°16.281 2°54.276 13.536356 3.767893 31.238543 19.680358
2004-05-17 07:09:43 51°16.281 2°54.274 13.538268 3.762729 31.191545 19.478101
2004-05-17 07:09:48 51°16.281 2°54.272 13.536134 3.76294 31.194116 18.938751
2004-05-17 07:09:53 51°16.281 2°54.271 13.536134 3.76294 31.194116 18.938751
2004-05-17 07:09:57 51°16.281 2°54.27 13.536534 3.764626 31.210293 19.275845
2004-05-17 07:10:03 51°16.28 2°54.268 13.536045 3.763045 31.195088 19.511811
2004-05-17 07:10:08 51°16.28 2°54.266 13.536312 3.763467 31.197721 19.848905
2004-05-17 07:10:13 51°16.28 2°54.265 13.537246 3.763783 31.201891 19.781486
2004-05-17 07:10:17 51°16.28 2°54.263 13.537112 3.757776 31.145874 19.747777
2004-05-17 07:10:23 51°16.279 2°54.261 13.537112 3.757776 31.145874 19.747777
2004-05-17 07:10:28 51°16.279 2°54.26 13.536179 3.75883 31.156216 19.747777
2004-05-17 07:10:33 51°16.279 2°54.258 13.534178 3.765996 31.223556 19.882614
2004-05-17 07:10:37 51°16.279 2°54.257 13.537601 3.758619 31.154899 19.747777
2004-05-17 07:10:43 51°16.278 2°54.255 13.537379 3.762834 31.193144 19.747777
2004-05-17 07:10:47 51°16.278 2°54.254 13.53809 3.75904 31.15816 19.376973
2004-05-17 07:10:51 51°16.278 2°54.253 13.53809 3.75904 31.15816 19.376973
2004-05-17 07:10:57 51°16.278 2°54.251 13.538402 3.76294 31.194742 19.848905
2004-05-17 07:11:03 51°16.277 2°54.249 13.536534 3.759357 31.162327 19.54552
2004-05-17 07:11:07 51°16.277 2°54.247 13.535112 3.763572 31.201828 19.848905
2004-05-17 07:11:11 51°16.277 2°54.246 13.535512 3.765575 31.219668 19.983742
2004-05-17 07:11:17 51°16.277 2°54.244 13.535645 3.766839 31.230705 19.747777
2004-05-17 07:11:23 51°16.276 2°54.242 13.535645 3.766839 31.230705 19.747777
2004-05-17 07:11:28 51°16.276 2°54.24 13.536356 3.765469 31.219951 19.57923
2004-05-17 07:11:32 51°16.276 2°54.239 13.535112 3.764099 31.20606 19.54552
2004-05-17 07:11:37 51°16.275 2°54.237 13.5352 3.763256 31.198912 19.781486
2004-05-17 07:11:43 51°16.275 2°54.235 13.53689 3.759567 31.164896 19.747777
2004-05-17 07:11:47 51°16.275 2°54.234 13.534978 3.763994 31.204461 20.152289
2004-05-17 07:11:52 51°16.274 2°54.232 13.534978 3.763994 31.204461 20.152289
2004-05-17 07:11:57 51°16.274 2°54.231 13.535112 3.757354 31.143864 19.916324
2004-05-17 07:12:03 51°16.273 2°54.229 13.537023 3.761359 31.182044 19.511811
2004-05-17 07:12:07 51°16.273 2°54.227 13.535734 3.763045 31.196341 19.612939
2004-05-17 07:12:12 51°16.272 2°54.226 13.537557 3.766207 31.226755 20.017452
2004-05-17 07:12:17 51°16.272 2°54.224 13.538579 3.764942 31.21509 19.781486
2004-05-17 07:12:23 51°16.272 2°54.222 13.538579 3.764942 31.21509 19.781486
2004-05-17 07:12:27 51°16.271 2°54.221 13.538979 3.765785 31.22224 20.11858
2004-05-17 07:12:33 51°16.271 2°54.218 13.537379 3.763994 31.205715 19.781486
2004-05-17 07:12:37 51°16.27 2°54.217 13.539157 3.76294 31.195996 19.882614
2004-05-17 07:12:43 51°16.27 2°54.215 13.540091 3.763467 31.200856 19.950033
2004-05-17 07:12:47 51°16.269 2°54.214 13.539958 3.764626 31.21092 19.54552
2004-05-17 07:12:53 51°16.269 2°54.212 13.539958 3.764626 31.21092 19.54552
2004-05-17 07:12:57 51°16.269 2°54.21 13.543781 3.763256 31.196405 19.781486
2004-05-17 07:13:03 51°16.268 2°54.208 13.540224 3.764732 31.211265 19.815195
2004-05-17 07:13:08 51°16.268 2°54.206 13.540224 3.763888 31.202863 19.646648
2004-05-17 07:13:13 51°16.267 2°54.204 13.539513 3.764837 31.210356 19.781486
2004-05-17 07:13:18 51°16.266 2°54.203 13.540447 3.764415 31.207095 19.916324
2004-05-17 07:13:23 51°16.266 2°54.201 13.540447 3.764415 31.207095 19.916324
2004-05-17 07:13:28 51°16.266 2°54.199 13.540002 3.76431 31.20487 19.747777
2004-05-17 07:13:33 51°16.265 2°54.198 13.539824 3.764415 31.206468 19.680358
2004-05-17 07:13:37 51°16.266 2°54.198 13.540535 3.764099 31.202926 20.152289
2004-05-17 07:13:43 51°16.268 2°54.199 13.541425 3.764521 31.206813 19.916324
2004-05-17 07:13:47 51°16.271 2°54.2 13.541024 3.763783 31.20001 20.455674
2004-05-17 07:13:52 51°16.277 2°54.203 13.541024 3.763783 31.20001 20.455674
2004-05-17 07:13:57 51°16.284 2°54.204 13.541202 3.766102 31.221392 19.57923
2004-05-17 07:14:03 51°16.296 2°54.204 13.539869 3.763256 31.196405 19.444392
2004-05-17 07:14:08 51°16.306 2°54.202 13.54138 3.765469 31.216187 19.57923
2004-05-17 07:14:13 51°16.318 2°54.197 13.544181 3.765891 31.218821 19.107298
2004-05-17 07:14:17 51°16.328 2°54.191 13.550537 3.76294 31.193489 19.57923
2004-05-17 07:14:23 51°16.343 2°54.177 13.550537 3.76294 31.193489 19.57923
2004-05-17 07:14:27 51°16.353 2°54.165 13.552404 3.763467 31.198348 19.376973
2004-05-17 07:14:33 51°16.367 2°54.143 13.556893 3.763361 31.19863 19.309554
2004-05-17 07:14:37 51°16.375 2°54.127 13.559338 3.76431 31.207377 19.916324
2004-05-17 07:14:44 51°16.39 2°54.096 13.562404 3.763256 31.195778 19.714067
2004-05-17 07:14:48 51°16.399 2°54.077 13.56476 3.764521 31.206186 19.511811
2004-05-17 07:14:53 51°16.41 2°54.054 13.56476 3.764521 31.206186 19.511811
2004-05-17 07:14:57 51°16.418 2°54.035 13.569737 3.764731 31.204996 19.511811
2004-05-17 07:15:03 51°16.431 2°54.006 13.565337 3.764521 31.201172 19.444392
2004-05-17 07:15:07 51°16.439 2°53.985 13.563115 3.764942 31.201925 19.57923
2004-05-17 07:15:13 51°16.451 2°53.954 13.558049 3.76315 31.182904 19.714067
2004-05-17 07:15:17 51°16.459 2°53.933 13.544536 3.765153 31.198856 18.736494
2004-05-17 07:15:24 51°16.473 2°53.896 13.544536 3.765153 31.198856 18.736494
2004-05-17 07:15:28 51°16.481 2°53.875 13.546003 3.767788 31.22001 19.309554
2004-05-17 07:15:33 51°16.491 2°53.849 13.527108 3.765469 31.197386 18.97246
2004-05-17 07:15:37 51°16.498 2°53.827 13.524618 3.770001 31.241039 18.97246
2004-05-17 07:15:43 51°16.51 2°53.795 13.511677 3.767893 31.224743 18.534238
2004-05-17 07:15:48 51°16.52 2°53.769 13.510432 3.767155 31.221076 18.298272
2004-05-17 07:15:53 51°16.53 2°53.742 13.510432 3.767155 31.221076 18.298272
2004-05-17 07:15:57 51°16.537 2°53.721 13.513367 3.772531 31.275662 18.096016
2004-05-17 07:16:04 51°16.552 2°53.684 13.505851 3.770107 31.260213 18.365691
2004-05-17 07:16:08 51°16.56 2°53.663 13.500824 3.774744 31.310542 17.826341
2004-05-17 07:16:13 51°16.57 2°53.637 13.499134 3.775271 31.319811 17.522956
2004-05-17 07:16:16 51°16.576 2°53.621 13.484453 3.777274 31.343335 16.848768
2004-05-17 07:16:23 51°16.591 2°53.586 13.484453 3.777274 31.343335 16.848768
2004-05-17 07:16:28 51°16.601 2°53.56 13.480003 3.775904 31.333836 17.758922
2004-05-17 07:16:33 51°16.612 2°53.535 13.475509 3.779382 31.367841 16.949896
2004-05-17 07:16:37 51°16.621 2°53.515 13.463715 3.784019 31.413827 16.882477
2004-05-17 07:16:44 51°16.636 2°53.48 13.457262 3.785073 31.426091 17.219571
2004-05-17 07:16:48 51°16.645 2°53.461 13.451564 3.78697 31.450576 16.579093
2004-05-17 07:16:52 51°16.654 2°53.441 13.451564 3.78697 31.450576 16.579093
2004-05-17 07:16:57 51°16.665 2°53.416 13.447201 3.785811 31.445556 16.241999
2004-05-17 07:17:03 51°16.678 2°53.387 13.44542 3.787708 31.469424 15.871195
2004-05-17 07:17:08 51°16.689 2°53.362 13.444664 3.788868 31.48648 16.309418
2004-05-17 07:17:12 51°16.698 2°53.342 13.441146 3.788762 31.491211 16.17458
2004-05-17 07:17:17 51°16.71 2°53.319 13.444441 3.788657 31.496579 15.399264
2004-05-17 07:17:22 51°16.722 2°53.295 13.444441 3.788657 31.496579 15.399264
2004-05-17 07:17:28 51°16.736 2°53.268 13.437718 3.78813 31.494241 16.275708
2004-05-17 07:17:33 51°16.749 2°53.245 13.440479 3.788552 31.501314 17.017315
2004-05-17 07:17:37 51°16.758 2°53.227 13.438742 3.788657 31.504828 17.118443
2004-05-17 07:17:43 51°16.773 2°53.2 13.43518 3.787076 31.491469 17.017315
2004-05-17 07:17:48 51°16.785 2°53.177 13.435358 3.784968 31.472599 16.545383
2004-05-17 07:17:53 51°16.797 2°53.154 13.435358 3.784968 31.472599 16.545383
2004-05-17 07:17:57 51°16.807 2°53.136 13.434958 3.787709 31.500494 17.354409
2004-05-17 07:18:04 51°16.824 2°53.105 13.438208 3.787393 31.498837 16.848768
2004-05-17 07:18:08 51°16.834 2°53.087 13.432776 3.786549 31.492303 17.792631
2004-05-17 07:18:13 51°16.846 2°53.065 13.439544 3.789606 31.521862 18.096016
2004-05-17 07:18:18 51°16.858 2°53.044 13.43941 3.785179 31.482162 18.534238
2004-05-17 07:18:24 51°16.872 2°53.02 13.43941 3.785179 31.482162 18.534238
2004-05-17 07:18:27 51°16.88 2°53.008 13.439232 3.786128 31.490306 18.43311
2004-05-17 07:18:33 51°16.894 2°52.984 13.45005 3.789395 31.520546 19.882614
2004-05-17 07:18:37 51°16.904 2°52.968 13.45143 3.787498 31.504257 20.556802
2004-05-17 07:18:43 51°16.918 2°52.945 13.448715 3.788657 31.514352 20.523093
2004-05-17 07:18:47 51°16.928 2°52.929 13.445242 3.791819 31.541714 20.826477
2004-05-17 07:18:52 51°16.941 2°52.909 13.445242 3.791819 31.541714 20.826477
2004-05-17 07:18:56 51°16.951 2°52.892 13.440345 3.78813 31.5063 22.006306
2004-05-17 07:19:03 51°16.968 2°52.864 13.442304 3.789079 31.512539 22.174853
2004-05-17 07:19:07 51°16.978 2°52.847 13.438475 3.7895 31.514535 22.579366
2004-05-17 07:19:13 51°16.993 2°52.82 13.438386 3.790449 31.522043 22.95017
2004-05-17 07:19:17 51°17.002 2°52.802 13.438475 3.791608 31.534043 23.725486
2004-05-17 07:19:23 51°17.017 2°52.775 13.438475 3.791608 31.534043 23.725486
2004-05-17 07:19:28 51°17.028 2°52.752 13.445688 3.791608 31.536585 24.669349
2004-05-17 07:19:32 51°17.038 2°52.733 13.447246 3.795613 31.573658 24.837896
2004-05-17 07:19:37 51°17.05 2°52.71 13.446044 3.796351 31.583034 25.377247
2004-05-17 07:19:42 51°17.062 2°52.687 13.450317 3.795192 31.572936 25.74805
2004-05-17 07:19:47 51°17.074 2°52.665 13.449249 3.796773 31.588847 27.366101
2004-05-17 07:19:53 51°17.089 2°52.638 13.449249 3.796773 31.588847 27.366101
2004-05-17 07:19:57 51°17.099 2°52.621 13.45784 3.795824 31.578155 27.197554
2004-05-17 07:20:03 51°17.115 2°52.596 13.454146 3.79456 31.56581 27.635777
2004-05-17 07:20:07 51°17.125 2°52.581 13.452321 3.793927 31.558047 26.995298
2004-05-17 07:20:12 51°17.138 2°52.561 13.461 3.799197 31.60365 26.691913
2004-05-17 07:20:17 51°17.151 2°52.541 13.446489 3.794243 31.557795 26.085144
2004-05-17 07:20:23 51°17.167 2°52.516 13.446489 3.794243 31.557795 26.085144
2004-05-17 07:20:27 51°17.177 2°52.5 13.454724 3.793716 31.550374 25.512084
2004-05-17 07:20:33 51°17.193 2°52.475 13.454813 3.794559 31.556271 25.309828
2004-05-17 07:20:37 51°17.203 2°52.457 13.454146 3.797405 31.581336 25.950306
2004-05-17 07:20:43 51°17.219 2°52.432 13.452543 3.796878 31.575186 26.253691
2004-05-17 07:20:47 51°17.229 2°52.415 13.454502 3.79867 31.594951 27.366101
2004-05-17 07:20:53 51°17.245 2°52.391 13.454502 3.79867 31.594951 27.366101
2004-05-17 07:20:57 51°17.256 2°52.375 13.459443 3.796351 31.572217 27.602067
2004-05-17 07:21:03 51°17.272 2°52.351 13.45517 3.798459 31.592364 27.231264
2004-05-17 07:21:08 51°17.286 2°52.332 13.455437 3.798038 31.589734 26.86046
2004-05-17 07:21:13 51°17.301 2°52.313 13.460288 3.796562 31.57544 26.826751
2004-05-17 07:21:17 51°17.312 2°52.298 13.459443 3.796773 31.575483 26.759332
2004-05-17 07:21:23 51°17.329 2°52.275 13.459443 3.796773 31.575483 26.759332
2004-05-17 07:21:28 51°17.343 2°52.256 13.455392 3.79614 31.568994 26.219982
2004-05-17 07:21:33 51°17.356 2°52.236 13.459576 3.796667 31.573235 27.029007
2004-05-17 07:21:37 51°17.367 2°52.22 13.455214 3.796878 31.575186 27.264973
2004-05-17 07:21:43 51°17.384 2°52.197 13.454368 3.798248 31.587231 27.838033
2004-05-17 07:21:47 51°17.395 2°52.181 13.45744 3.798248 31.587867 28.748187
2004-05-17 07:21:51 51°17.406 2°52.165 13.45744 3.798248 31.587867 28.748187
2004-05-17 07:21:57 51°17.422 2°52.142 13.461089 3.797721 31.58299 29.11899
2004-05-17 07:22:03 51°17.439 2°52.119 13.460066 3.797721 31.583626 29.220118
2004-05-17 07:22:08 51°17.453 2°52.099 13.460288 3.799302 31.598895 29.253828
2004-05-17 07:22:13 51°17.467 2°52.08 13.458819 3.798248 31.589776 28.073999
2004-05-17 07:22:17 51°17.478 2°52.064 13.461267 3.801199 31.615819 27.669486
2004-05-17 07:22:23 51°17.494 2°52.04 13.461267 3.801199 31.615819 27.669486
2004-05-17 07:22:27 51°17.505 2°52.024 13.456995 3.799408 31.596688 28.040289
2004-05-17 07:22:33 51°17.522 2°52 13.456638 3.800778 31.609369 27.602067
2004-05-17 07:22:37 51°17.532 2°51.984 13.459754 3.800145 31.604153 27.534648
2004-05-17 07:22:43 51°17.549 2°51.961 13.457573 3.801937 31.621374 26.961589
2004-05-17 07:22:47 51°17.56 2°51.945 13.456238 3.802675 31.62693 26.388529
2004-05-17 07:22:51 51°17.571 2°51.93 13.456238 3.802675 31.62693 26.388529
2004-05-17 07:22:57 51°17.588 2°51.906 13.458063 3.802464 31.626253 26.422238
2004-05-17 07:23:03 51°17.604 2°51.884 13.465941 3.805521 31.654548 25.545794
2004-05-17 07:23:07 51°17.615 2°51.868 13.467765 3.803202 31.633719 25.815469
2004-05-17 07:23:12 51°17.629 2°51.849 13.469679 3.803834 31.638936 26.32111
2004-05-17 07:23:17 51°17.643 2°51.829 13.468567 3.80394 31.640549 26.793042
2004-05-17 07:23:23 51°17.66 2°51.806 13.468567 3.80394 31.640549 26.793042
2004-05-17 07:23:27 51°17.671 2°51.791 13.469546 3.804467 31.644153 27.905452
2004-05-17 07:23:31 51°17.682 2°51.775 13.471459 3.807207 31.666971 28.242546
2004-05-17 07:23:37 51°17.698 2°51.751 13.470836 3.805731 31.652036 29.456084
2004-05-17 07:23:43 51°17.714 2°51.727 13.471593 3.807418 31.666371 29.725759
2004-05-17 07:23:47 51°17.726 2°51.712 13.469635 3.807418 31.664458 30.568494
2004-05-17 07:23:53 51°17.742 2°51.689 13.469635 3.807418 31.664458 30.568494
2004-05-17 07:23:58 51°17.756 2°51.669 13.469234 3.805521 31.646261 31.478648
2004-05-17 07:24:03 51°17.769 2°51.649 13.473284 3.805942 31.648888 31.444939
2004-05-17 07:24:07 51°17.78 2°51.633 13.465362 3.805837 31.647275 31.916871
2004-05-17 07:24:11 51°17.791 2°51.618 13.463092 3.806469 31.652491 32.220255
2004-05-17 07:24:17 51°17.807 2°51.594 13.463626 3.806575 31.654103 32.624768
2004-05-17 07:24:23 51°17.823 2°51.57 13.463626 3.806575 31.654103 32.624768
2004-05-17 07:24:27 51°17.835 2°51.554 13.464116 3.806258 31.651814 34.1754
2004-05-17 07:24:31 51°17.846 2°51.538 13.453255 3.808788 31.675228 34.681042
2004-05-17 07:24:37 51°17.862 2°51.514 13.452143 3.807523 31.665434 35.961999
2004-05-17 07:24:43 51°17.879 2°51.491 13.438653 3.807945 31.669974 36.838443
2004-05-17 07:24:47 51°17.89 2°51.476 13.429124 3.808788 31.679055 38.321657
2004-05-17 07:24:53 51°17.907 2°51.453 13.429124 3.808788 31.679055 38.321657
2004-05-17 07:24:56 51°17.916 2°51.441 13.414517 3.807207 31.666333 39.737452
2004-05-17 07:25:03 51°17.936 2°51.414 13.404584 3.807734 31.675678 41.456631
2004-05-17 07:25:07 51°17.947 2°51.399 13.397589 3.808999 31.691858 43.445486
2004-05-17 07:25:13 51°17.964 2°51.375 13.385604 3.805837 31.667682 44.89499
2004-05-17 07:25:16 51°17.972 2°51.362 13.371299 3.806786 31.684768 47.625452
2004-05-17 07:25:23 51°17.991 2°51.334 13.371299 3.806786 31.684768 47.625452
2004-05-17 07:25:28 51°18.005 2°51.314 13.368848 3.805732 31.68203 48.973828
2004-05-17 07:25:33 51°18.019 2°51.294 13.357303 3.802992 31.664941 49.546888
2004-05-17 07:25:37 51°18.03 2°51.277 13.353915 3.804151 31.683354 49.513178
2004-05-17 07:25:43 51°18.047 2°51.253 13.342814 3.804467 31.693318 48.636734
2004-05-17 07:25:48 51°18.061 2°51.233 13.331532 3.8012 31.674532 47.760289
2004-05-17 07:25:53 51°18.075 2°51.213 13.331532 3.8012 31.674532 47.760289
2004-05-17 07:25:57 51°18.086 2°51.197 13.320605 3.800673 31.677959 46.074819
2004-05-17 07:26:03 51°18.102 2°51.172 13.31329 3.799936 31.677512 44.793862
2004-05-17 07:26:07 51°18.114 2°51.156 13.304056 3.799725 31.681316 44.187093
2004-05-17 07:26:13 51°18.13 2°51.132 13.299416 3.798355 31.673721 41.861144
2004-05-17 07:26:17 51°18.14 2°51.116 13.282281 3.799409 31.691828 41.153247
2004-05-17 07:26:23 51°18.156 2°51.094 13.282281 3.799409 31.691828 41.153247
2004-05-17 07:26:27 51°18.165 2°51.08 13.271792 3.798461 31.69135 40.310512
2004-05-17 07:26:33 51°18.179 2°51.06 13.267641 3.797301 31.686992 39.636324
2004-05-17 07:26:37 51°18.187 2°51.048 13.265141 3.79825 31.703496 38.523913
2004-05-17 07:26:43 51°18.199 2°51.03 13.252329 3.796775 31.697484 37.209247
2004-05-17 07:26:48 51°18.209 2°51.016 13.243532 3.796985 31.707142 37.108118
2004-05-17 07:26:53 51°18.218 2°51.003 13.243532 3.796985 31.707142 37.108118
2004-05-17 07:26:57 51°18.225 2°50.994 13.235851 3.797091 31.715825 35.658614
2004-05-17 07:27:03 51°18.236 2°50.98 13.229241 3.796459 31.715726 34.984426
2004-05-17 07:27:07 51°18.243 2°50.972 13.23469 3.795194 31.709747 33.905725
2004-05-17 07:27:12 51°18.251 2°50.963 13.231787 3.795299 31.717151 33.467503
2004-05-17 07:27:16 51°18.258 2°50.955 13.222765 3.795089 31.723547 32.591059
2004-05-17 07:27:23 51°18.27 2°50.945 13.222765 3.795089 31.723547 32.591059
2004-05-17 07:27:28 51°18.278 2°50.938 13.217003 3.794246 31.721489 31.546067
2004-05-17 07:27:33 51°18.286 2°50.933 13.215037 3.793719 31.721729 31.006717
2004-05-17 07:27:37 51°18.293 2°50.929 13.214948 3.793192 31.721327 30.501076
2004-05-17 07:27:43 51°18.302 2°50.925 13.209408 3.795721 31.746159 31.242683
2004-05-17 07:27:47 51°18.308 2°50.922 13.209051 3.796143 31.752015 31.175264
2004-05-17 07:27:53 51°18.317 2°50.92 13.209051 3.796143 31.752015 31.175264
2004-05-17 07:27:57 51°18.323 2°50.92 13.209855 3.794562 31.74116 30.433657
2004-05-17 07:28:03 51°18.332 2°50.92 13.207085 3.793719 31.737173 29.995435
2004-05-17 07:28:08 51°18.338 2°50.921 13.200874 3.79277 31.730272 29.590922
2004-05-17 07:28:11 51°18.342 2°50.922 13.204091 3.79003 31.707333 29.186409
2004-05-17 07:28:16 51°18.348 2°50.925 13.20007 3.790873 31.717114 29.69205
2004-05-17 07:28:23 51°18.357 2°50.93 13.20007 3.790873 31.717114 29.69205
2004-05-17 07:28:27 51°18.361 2°50.933 13.188407 3.790241 31.713799 28.849315
2004-05-17 07:28:33 51°18.368 2°50.938 13.190328 3.789609 31.709841 29.11899
2004-05-17 07:28:37 51°18.372 2°50.942 13.179647 3.790663 31.722231 28.478512
2004-05-17 07:28:43 51°18.378 2°50.947 13.179513 3.789293 31.712045 29.186409
2004-05-17 07:28:48 51°18.384 2°50.952 13.171333 3.78866 31.708086 28.54593
2004-05-17 07:28:53 51°18.389 2°50.956 13.171333 3.78866 31.708086 28.54593
2004-05-17 07:28:57 51°18.393 2°50.96 13.165566 3.789187 31.716214 28.984153
2004-05-17 07:29:03 51°18.4 2°50.964 13.16561 3.788028 31.706702 28.276255
2004-05-17 07:29:08 51°18.406 2°50.968 13.158144 3.788766 31.717438 28.714477
2004-05-17 07:29:13 51°18.411 2°50.972 13.151303 3.78982 31.731768 29.1527
2004-05-17 07:29:17 51°18.416 2°50.974 13.147726 3.786342 31.703868 28.680768
2004-05-17 07:29:23 51°18.423 2°50.978 13.147726 3.786342 31.703868 28.680768
2004-05-17 07:29:27 51°18.428 2°50.981 13.149917 3.787817 31.722772 28.815606
2004-05-17 07:29:33 51°18.436 2°50.984 13.155506 3.788239 31.729925 29.69205
2004-05-17 07:29:37 51°18.441 2°50.986 13.156937 3.78592 31.714111 29.354956
2004-05-17 07:29:43 51°18.449 2°50.988 13.156847 3.786764 31.725195 30.26511
2004-05-17 07:29:47 51°18.453 2°50.989 13.16105 3.788134 31.741196 30.635913
2004-05-17 07:29:51 51°18.458 2°50.99 13.16105 3.788134 31.741196 30.635913
2004-05-17 07:29:57 51°18.465 2°50.99 13.157786 3.785604 31.719544 31.815742
2004-05-17 07:30:03 51°18.471 2°50.989 13.16485 3.786658 31.727437 30.939298
2004-05-17 07:30:07 51°18.474 2°50.988 13.170036 3.78571 31.717948 30.602204
2004-05-17 07:30:13 51°18.478 2°50.987 13.170036 3.785604 31.715031 30.737042
2004-05-17 07:30:17 51°18.48 2°50.986 13.173434 3.784761 31.705881 30.602204
2004-05-17 07:30:23 51°18.482 2°50.985 13.173434 3.784761 31.705881 30.602204
2004-05-17 07:30:27 51°18.482 2°50.983 13.180138 3.784656 31.705543 30.26511
2004-05-17 07:30:33 51°18.481 2°50.981 13.176786 3.784129 31.698697 30.163982
2004-05-17 07:30:37 51°18.481 2°50.979 13.173612 3.786131 31.715432 29.928016
2004-05-17 07:30:43 51°18.48 2°50.976 13.177188 3.784761 31.700727 30.26511
2004-05-17 07:30:47 51°18.479 2°50.974 13.171243 3.78455 31.696186 29.894306
2004-05-17 07:30:53 51°18.478 2°50.971 13.171243 3.78455 31.696186 29.894306
2004-05-17 07:30:56 51°18.478 2°50.97 13.16485 3.784972 31.696895 29.321247
2004-05-17 07:31:03 51°18.477 2°50.967 13.142046 3.784972 31.695607 28.680768
2004-05-17 07:31:07 51°18.476 2°50.965 13.143611 3.78708 31.715896 28.512221
2004-05-17 07:31:11 51°18.475 2°50.963 13.131938 3.784339 31.690358 28.141418
2004-05-17 07:31:17 51°18.474 2°50.961 13.135516 3.78318 31.680842 28.478512
2004-05-17 07:31:23 51°18.473 2°50.958 13.135516 3.78318 31.680842 28.478512
2004-05-17 07:31:27 51°18.473 2°50.956 13.121158 3.78592 31.710245 29.017862
2004-05-17 07:31:32 51°18.472 2°50.954 13.123931 3.784129 31.701919 29.590922
2004-05-17 07:31:37 51°18.471 2°50.952 13.118026 3.784234 31.709991 30.770751
2004-05-17 07:31:43 51°18.47 2°50.949 13.108631 3.78318 31.707254 31.647195
2004-05-17 07:31:48 51°18.469 2°50.947 13.104335 3.782864 31.709464 32.894443
2004-05-17 07:31:53 51°18.468 2°50.945 13.104335 3.782864 31.709464 32.894443
2004-05-17 07:31:57 51°18.467 2°50.943 13.1025 3.783708 31.7212 33.467503
2004-05-17 07:32:03 51°18.466 2°50.941 13.099055 3.783918 31.725103 34.242819
2004-05-17 07:32:08 51°18.465 2°50.939 13.095117 3.783075 31.721754 34.478785
2004-05-17 07:32:12 51°18.465 2°50.937 13.097667 3.782654 31.722984 35.490067
2004-05-17 07:32:15 51°18.464 2°50.936 13.100173 3.782654 31.725566 35.254101
2004-05-17 07:32:23 51°18.463 2°50.932 13.100173 3.782654 31.725566 35.254101
2004-05-17 07:32:27 51°18.462 2°50.931 13.091984 3.782443 31.726827 34.714751
2004-05-17 07:32:33 51°18.461 2°50.928 13.090328 3.783075 31.737253 35.624905
2004-05-17 07:32:37 51°18.46 2°50.926 13.089298 3.782022 31.729351 36.332802
2004-05-17 07:32:43 51°18.459 2°50.924 13.087105 3.782127 31.731627 36.332802
2004-05-17 07:32:48 51°18.458 2°50.922 13.089298 3.784656 31.757185 36.164255
2004-05-17 07:32:53 51°18.457 2°50.92 13.089298 3.784656 31.757185 36.164255
2004-05-17 07:32:57 51°18.457 2°50.918 13.083211 3.781916 31.733536 36.636187
2004-05-17 07:33:03 51°18.456 2°50.915 13.079317 3.782549 31.740087 36.501349
2004-05-17 07:33:08 51°18.455 2°50.913 13.080391 3.782865 31.745626 37.00699
2004-05-17 07:33:13 51°18.454 2°50.911 13.085807 3.782127 31.740029 37.209247
2004-05-17 07:33:15 51°18.453 2°50.911 13.08151 3.781284 31.732154 37.782306
2004-05-17 07:33:23 51°18.452 2°50.907 13.08151 3.781284 31.732154 37.782306
2004-05-17 07:33:27 51°18.451 2°50.906 13.085315 3.782232 31.741659 37.478922
2004-05-17 07:33:33 51°18.45 2°50.904 13.081152 3.781916 31.740646 37.546341
2004-05-17 07:33:38 51°18.449 2°50.902 13.083256 3.781389 31.73831 37.613759
2004-05-17 07:33:44 51°18.448 2°50.899 13.08442 3.780757 31.732404 37.917144
2004-05-17 07:33:48 51°18.447 2°50.898 13.08527 3.7816 31.740279 37.647469
2004-05-17 07:33:54 51°18.446 2°50.895 13.08527 3.7816 31.740279 37.647469
2004-05-17 07:33:58 51°18.446 2°50.894 13.084957 3.780335 31.727173 37.950853
2004-05-17 07:34:02 51°18.445 2°50.892 13.085807 3.782654 31.749477 37.512631
2004-05-17 07:34:08 51°18.444 2°50.89 13.087419 3.78276 31.751755 38.355366
2004-05-17 07:34:14 51°18.443 2°50.888 13.08809 3.783392 31.757662 38.085691
2004-05-17 07:34:16 51°18.442 2°50.887 13.087687 3.783181 31.755693 38.355366
2004-05-17 07:34:24 51°18.441 2°50.884 13.087687 3.783181 31.755693 38.355366
2004-05-17 07:34:28 51°18.44 2°50.883 13.091491 3.781179 31.736341 37.714888
2004-05-17 07:34:33 51°18.439 2°50.881 13.100084 3.781284 31.736679 38.018272
2004-05-17 07:34:36 51°18.438 2°50.88 13.099636 3.781179 31.736988 38.355366
2004-05-17 07:34:44 51°18.437 2°50.877 13.105006 3.781389 31.73831 37.647469
2004-05-17 07:34:48 51°18.436 2°50.875 13.105991 3.781389 31.737664 37.209247
2004-05-17 07:34:54 51°18.435 2°50.873 13.105991 3.781389 31.737664 37.209247
2004-05-17 07:34:58 51°18.434 2°50.872 13.116908 3.781179 31.733755 36.804734
2004-05-17 07:35:04 51°18.433 2°50.87 13.122187 3.781389 31.731846 36.838443
2004-05-17 07:35:09 51°18.432 2°50.868 13.12827 3.782022 31.73452 36.029418
2004-05-17 07:35:13 51°18.431 2°50.866 13.133996 3.781495 31.725723 36.332802
2004-05-17 07:35:18 51°18.43 2°50.865 13.142806 3.7816 31.722832 34.917007
2004-05-17 07:35:24 51°18.429 2°50.863 13.142806 3.7816 31.722832 34.917007
2004-05-17 07:35:28 51°18.428 2°50.861 13.145534 3.782127 31.72323 34.984426
2004-05-17 07:35:34 51°18.427 2°50.859 13.153136 3.782548 31.723291 34.647332
2004-05-17 07:35:38 51°18.426 2°50.858 13.154299 3.783708 31.728946 33.534922
2004-05-17 07:35:44 51°18.425 2°50.856 13.160245 3.783602 31.722798 33.770888
2004-05-17 07:35:48 51°18.424 2°50.854 13.158725 3.78434 31.724519 33.534922
2004-05-17 07:35:52 51°18.423 2°50.853 13.158725 3.78434 31.724519 33.534922
2004-05-17 07:35:58 51°18.423 2°50.853 13.163241 3.783286 31.710172 32.658477
2004-05-17 07:36:03 51°18.422 2°50.853 13.166683 3.783707 31.708945 32.658477
2004-05-17 07:36:08 51°18.422 2°50.854 13.166326 3.784023 31.70867 32.860734
2004-05-17 07:36:14 51°18.422 2°50.856 13.169276 3.783918 31.705109 32.456221
2004-05-17 07:36:17 51°18.423 2°50.858 13.17026 3.784129 31.703852 31.748324
2004-05-17 07:36:24 51°18.423 2°50.862 13.17026 3.784129 31.703852 31.748324
2004-05-17 07:36:28 51°18.423 2°50.865 13.175803 3.78455 31.706494 31.714614
2004-05-17 07:36:32 51°18.424 2°50.868 13.173836 3.784866 31.706864 31.444939
2004-05-17 07:36:38 51°18.424 2°50.874 13.174909 3.784866 31.705575 31.478648
2004-05-17 07:36:43 51°18.425 2°50.879 13.174149 3.785604 31.710519 31.208973
2004-05-17 07:36:48 51°18.425 2°50.885 13.172316 3.785288 31.704995 31.074136
2004-05-17 07:36:53 51°18.426 2°50.892 13.172316 3.785288 31.704995 31.074136
2004-05-17 07:36:58 51°18.428 2°50.899 13.169276 3.785499 31.705027 30.669623
2004-05-17 07:37:04 51°18.432 2°50.907 13.167265 3.785077 31.700453 30.029144
2004-05-17 07:37:08 51°18.435 2°50.912 13.164493 3.784761 31.697507 30.433657
2004-05-17 07:37:13 51°18.44 2°50.917 13.167175 3.784866 31.697845 29.860597
2004-05-17 07:37:18 51°18.446 2°50.92 13.163464 3.784866 31.698489 29.725759
2004-05-17 07:37:24 51°18.454 2°50.92 13.163464 3.784866 31.698489 29.725759
2004-05-17 07:37:28 51°18.46 2°50.918 13.16485 3.785077 31.702386 29.624631
2004-05-17 07:37:34 51°18.468 2°50.913 13.165163 3.784656 31.6991 30.130272
2004-05-17 07:37:38 51°18.473 2°50.908 13.162526 3.784866 31.703642 29.928016
2004-05-17 07:37:44 51°18.48 2°50.897 13.159977 3.784761 31.704592 29.658341
2004-05-17 07:37:48 51°18.485 2°50.888 13.158234 3.78434 31.701951 29.354956
2004-05-17 07:37:52 51°18.488 2°50.878 13.158234 3.78434 31.701951 29.354956
2004-05-17 07:37:58 51°18.492 2°50.861 13.160558 3.784129 31.699986 29.826888
2004-05-17 07:38:04 51°18.494 2°50.841 13.153852 3.783602 31.695073 29.422375
2004-05-17 07:38:08 51°18.495 2°50.828 13.153405 3.78455 31.705205 28.680768
2004-05-17 07:38:13 51°18.495 2°50.81 13.152689 3.783918 31.701242 28.444802
2004-05-17 07:38:18 51°18.492 2°50.792 13.154522 3.78318 31.694364 28.309965
2004-05-17 07:38:24 51°18.489 2°50.77 13.154522 3.78318 31.694364 28.309965
2004-05-17 07:38:28 51°18.485 2°50.755 13.152913 3.783813 31.702193 28.613349
2004-05-17 07:38:32 51°18.481 2°50.74 13.158681 3.783496 31.699889 28.309965
2004-05-17 07:38:38 51°18.473 2°50.717 13.154657 3.782969 31.697553 27.703195
2004-05-17 07:38:44 51°18.465 2°50.695 13.158368 3.782653 31.695894 27.366101
2004-05-17 07:38:48 51°18.459 2°50.679 13.164046 3.782548 31.694267 26.89417
2004-05-17 07:38:53 51°18.451 2°50.661 13.164046 3.782548 31.694267 26.89417
2004-05-17 07:38:58 51°18.443 2°50.642 13.170394 3.782864 31.697859 27.43352
2004-05-17 07:39:04 51°18.432 2°50.621 13.176831 3.782864 31.69657 26.759332
2004-05-17 07:39:08 51°18.424 2°50.608 13.174104 3.782232 31.688741 26.085144
2004-05-17 07:39:13 51°18.413 2°50.593 13.174059 3.782759 31.691078 26.186272
2004-05-17 07:39:18 51°18.401 2°50.579 13.17397 3.783286 31.69277 26.2874
2004-05-17 07:39:24 51°18.386 2°50.565 13.17397 3.783286 31.69277 26.2874
2004-05-17 07:39:29 51°18.373 2°50.554 13.174998 3.783391 31.689888 25.309828
2004-05-17 07:39:34 51°18.36 2°50.544 13.173612 3.784445 31.695204 25.107571
2004-05-17 07:39:38 51°18.349 2°50.537 13.179378 3.784866 31.698489 25.309828
2004-05-17 07:39:44 51°18.333 2°50.528 13.176428 3.785499 31.704383 24.06258
2004-05-17 07:39:48 51°18.321 2°50.523 13.178529 3.784972 31.700759 23.759195
2004-05-17 07:39:53 51°18.307 2°50.518 13.178529 3.784972 31.700759 23.759195
2004-05-17 07:39:58 51°18.293 2°50.513 13.181747 3.786131 31.711565 23.995161
2004-05-17 07:40:04 51°18.275 2°50.509 13.187334 3.786026 31.709294 23.691777
2004-05-17 07:40:08 51°18.263 2°50.505 13.189345 3.785499 31.70245 23.152426
2004-05-17 07:40:14 51°18.245 2°50.501 13.190954 3.785709 31.703771 23.017589
2004-05-17 07:40:18 51°18.233 2°50.496 13.194976 3.786131 31.7077 22.882751
2004-05-17 07:40:22 51°18.222 2°50.492 13.194976 3.786131 31.7077 22.882751
2004-05-17 07:40:28 51°18.204 2°50.484 13.193948 3.786342 31.707088 23.52323
2004-05-17 07:40:34 51°18.185 2°50.476 13.19015 3.78708 31.711387 23.051298
2004-05-17 07:40:38 51°18.171 2°50.471 13.175713 3.786763 31.705864 22.511947
2004-05-17 07:40:44 51°18.15 2°50.464 13.167309 3.786974 31.705253 23.320973
2004-05-17 07:40:53 51°18.117 2°50.455 13.153941 3.788028 31.711209 22.95017
2004-05-17 07:41:00 51°18.09 2°50.45 13.153941 3.788028 31.711209 22.95017
2004-05-17 07:41:05 51°18.07 2°50.445 13.146205 3.787501 31.708875 23.556939
2004-05-17 07:41:09 51°18.054 2°50.442 13.140883 3.786763 31.706508 23.556939
2004-05-17 07:41:14 51°18.035 2°50.436 13.138334 3.78708 31.71654 23.961452
2004-05-17 07:41:19 51°18.015 2°50.427 13.144372 3.786764 31.720038 25.17499
2004-05-17 07:41:24 51°17.996 2°50.417 13.1526 3.786131 31.720589 25.984016
2004-05-17 07:41:29 51°17.977 2°50.405 13.1526 3.786131 31.720589 25.984016
2004-05-17 07:41:34 51°17.959 2°50.391 13.14142 3.786658 31.732597 26.89417
2004-05-17 07:41:40 51°17.936 2°50.376 13.164493 3.786869 31.736499 28.073999
2004-05-17 07:41:44 51°17.921 2°50.366 13.140526 3.786448 31.735793 28.849315
2004-05-17 07:41:48 51°17.906 2°50.358 13.138334 3.786237 31.732536 29.523503
2004-05-17 07:41:52 51°17.89 2°50.349 13.145132 3.787185 31.740738 30.163982
2004-05-17 07:41:58 51°17.867 2°50.336 13.145132 3.787185 31.740738 30.163982
2004-05-17 07:42:05 51°17.84 2°50.32 13.158815 3.788766 31.754839 31.242683
2004-05-17 07:42:08 51°17.828 2°50.314 13.168561 3.788766 31.751611 30.905589
2004-05-17 07:42:13 51°17.808 2°50.304 13.170528 3.788556 31.754164 31.714614
2004-05-17 07:42:20 51°17.78 2°50.293 13.170036 3.78845 31.753181 31.343811
2004-05-17 07:42:24 51°17.765 2°50.286 13.172003 3.789715 31.764979 30.939298
2004-05-17 07:42:29 51°17.745 2°50.279 13.172003 3.789715 31.764979 30.939298
2004-05-17 07:42:34 51°17.724 2°50.27 13.181122 3.789399 31.758155 30.399947
2004-05-17 07:42:39 51°17.705 2°50.261 13.186038 3.789609 31.754956 30.163982
2004-05-17 07:42:44 51°17.685 2°50.251 13.183267 3.789609 31.751084 29.590922
2004-05-17 07:42:50 51°17.662 2°50.241 13.182775 3.790979 31.761923 29.557212
2004-05-17 07:42:54 51°17.646 2°50.235 13.187647 3.79235 31.771471 28.680768
2004-05-17 07:43:00 51°17.622 2°50.225 13.187647 3.79235 31.771471 28.680768
2004-05-17 07:43:04 51°17.606 2°50.218 13.180541 3.792876 31.77122 28.950443
2004-05-17 07:43:08 51°17.59 2°50.212 13.186664 3.792876 31.767993 28.916734
2004-05-17 07:43:14 51°17.566 2°50.202 13.193948 3.79393 31.777172 28.309965
2004-05-17 07:43:20 51°17.542 2°50.192 13.194484 3.79509 31.786689 28.714477
2004-05-17 07:43:24 51°17.526 2°50.185 13.19015 3.795301 31.788008 28.343674
2004-05-17 07:43:28 51°17.511 2°50.179 13.19015 3.795301 31.788008 28.343674
2004-05-17 07:43:33 51°17.491 2°50.171 13.197031 3.797092 31.805357 28.242546
2004-05-17 07:43:40 51°17.463 2°50.16 13.190462 3.796881 31.8021 28.242546
2004-05-17 07:43:44 51°17.447 2°50.154 13.194529 3.798146 31.812598 28.478512
2004-05-17 07:43:49 51°17.427 2°50.146 13.205476 3.798462 31.812961 28.57964
2004-05-17 07:43:54 51°17.408 2°50.139 13.201187 3.7992 31.8179 28.343674
2004-05-17 07:44:00 51°17.384 2°50.129 13.201187 3.7992 31.8179 28.343674
2004-05-17 07:44:05 51°17.364 2°50.121 13.209721 3.800149 31.826096 28.849315
2004-05-17 07:44:09 51°17.348 2°50.114 13.213473 3.80036 31.827415 28.57964
2004-05-17 07:44:14 51°17.329 2°50.105 13.219683 3.802046 31.841842 28.680768
2004-05-17 07:44:20 51°17.306 2°50.093 13.223703 3.802889 31.846469 28.781896
2004-05-17 07:44:24 51°17.291 2°50.084 13.22875 3.803311 31.849105 29.321247
2004-05-17 07:44:28 51°17.275 2°50.076 13.22875 3.803311 31.849105 29.321247
2004-05-17 07:44:32 51°17.26 2°50.067 13.229241 3.804154 31.852437 29.253828
2004-05-17 07:44:38 51°17.237 2°50.056 13.230403 3.805102 31.858045 29.388665
2004-05-17 07:44:44 51°17.213 2°50.045 13.231073 3.805629 31.859076 29.017862
2004-05-17 07:44:48 51°17.198 2°50.037 13.233484 3.806051 31.860418 28.714477
2004-05-17 07:44:54 51°17.175 2°50.025 13.244336 3.805524 31.85163 29.793178
2004-05-17 07:45:00 51°17.152 2°50.011 13.244336 3.805524 31.85163 29.793178
2004-05-17 07:45:05 51°17.134 2°49.999 13.248623 3.806472 31.857882 30.467366
2004-05-17 07:45:10 51°17.115 2°49.986 13.250543 3.807421 31.865426 30.197691
2004-05-17 07:45:14 51°17.1 2°49.976 13.250007 3.80721 31.862169 30.096563
2004-05-17 07:45:20 51°17.078 2°49.961 13.255365 3.807632 31.863511 29.860597
2004-05-17 07:45:25 51°17.059 2°49.949 13.262865 3.808791 31.869786 30.26511
2004-05-17 07:45:30 51°17.041 2°49.936 13.262865 3.808791 31.869786 30.26511
2004-05-17 07:45:35 51°17.022 2°49.923 13.259784 3.808264 31.859708 29.860597
2004-05-17 07:45:40 51°17.003 2°49.91 13.264427 3.809002 31.863994 30.298819
2004-05-17 07:45:45 51°16.985 2°49.895 13.272863 3.809845 31.869907 30.635913
2004-05-17 07:45:49 51°16.971 2°49.882 13.270542 3.811109 31.878453 31.175264
2004-05-17 07:45:54 51°16.954 2°49.865 13.280049 3.811426 31.878166 31.883161
2004-05-17 07:45:58 51°16.941 2°49.85 13.280049 3.811426 31.878166 31.883161
2004-05-17 07:46:04 51°16.921 2°49.827 13.279067 3.811953 31.881134 31.849452
2004-05-17 07:46:09 51°16.904 2°49.809 13.292946 3.812374 31.883767 32.355093
2004-05-17 07:46:14 51°16.887 2°49.791 13.28719 3.813744 31.891353 32.321383
2004-05-17 07:46:19 51°16.87 2°49.772 13.298345 3.814377 31.894008 33.298956
2004-05-17 07:46:24 51°16.852 2°49.754 13.299951 3.815641 31.902549 33.737178
2004-05-17 07:46:30 51°16.831 2°49.733 13.299951 3.815641 31.902549 33.737178
2004-05-17 07:46:34 51°16.817 2°49.719 13.306063 3.817117 31.913051 33.770888
2004-05-17 07:46:39 51°16.8 2°49.701 13.317528 3.817222 31.909507 35.186683
2004-05-17 07:46:44 51°16.782 2°49.682 13.322122 3.818382 31.918357 35.591195
2004-05-17 07:46:48 51°16.769 2°49.666 13.323371 3.819857 31.930149 36.669896
2004-05-17 07:46:54 51°16.749 2°49.642 13.329793 3.82049 31.930215 37.411503
2004-05-17 07:47:00 51°16.729 2°49.617 13.329793 3.82049 31.930215 37.411503
2004-05-17 07:47:04 51°16.716 2°49.6 13.331889 3.821544 31.936789 38.254238
2004-05-17 07:47:09 51°16.7 2°49.579 13.328901 3.822176 31.9375 38.287947
2004-05-17 07:47:14 51°16.684 2°49.56 13.334208 3.823335 31.943113 38.186819
2004-05-17 07:47:20 51°16.663 2°49.538 13.33501 3.824811 31.952312 37.714888
2004-05-17 07:47:24 51°16.649 2°49.524 13.335813 3.825127 31.951374 37.344084
2004-05-17 07:47:28 51°16.635 2°49.509 13.335813 3.825127 31.951374 37.344084
2004-05-17 07:47:34 51°16.614 2°49.487 13.335768 3.826181 31.95859 37.175537
2004-05-17 07:47:39 51°16.597 2°49.468 13.340005 3.825654 31.953689 36.804734
2004-05-17 07:47:45 51°16.576 2°49.445 13.340852 3.826919 31.962865 37.377794
2004-05-17 07:47:49 51°16.562 2°49.43 13.342234 3.828078 31.972353 37.175537
2004-05-17 07:47:54 51°16.545 2°49.412 13.339559 3.827973 31.970079 36.973281
2004-05-17 07:48:00 51°16.524 2°49.391 13.339559 3.827973 31.970079 36.973281
2004-05-17 07:48:05 51°16.506 2°49.373 13.339202 3.828394 31.971413 36.939571
2004-05-17 07:48:09 51°16.492 2°49.359 13.336705 3.830186 31.98678 36.838443
2004-05-17 07:48:14 51°16.475 2°49.341 13.336036 3.82987 31.981899 36.197965
2004-05-17 07:48:20 51°16.454 2°49.318 13.338176 3.830291 31.986466 36.366512